GFSFLT1_925_spd_000.txt.gz
Wind_Speed
11 10 13 16 21 24 24 18 13 7 7 13 12 11 8 4 3 4 6 7 7 8 7 7 6 8 9 11 12 14 15 18
17 21 24 26 27 24 18 15 16 21 21 12 6 3 2 2 5 5 6 7 6 6 6 7 9 10 10 12 14 16 17 19
16 24 30 29 24 19 20 21 21 16 9 2 1 1 4 2 4 6 6 7 7 9 11 13 13 12 11 12 15 16 10 14
9 18 24 27 27 25 22 17 14 9 9 8 5 2 2 0 3 5 7 7 8 11 16 17 14 10 6 9 12 15 8 8
11 15 18 21 20 17 15 13 11 8 5 4 3 2 1 2 3 7 10 12 15 21 24 17 12 4 5 8 8 9 7 8
7 12 11 11 12 12 9 8 6 4 3 3 3 2 3 3 4 6 18 23 23 21 22 19 10 3 3 3 4 5 7 5
12 11 10 7 9 8 8 6 7 6 6 10 11 10 7 5 8 13 19 21 23 25 19 8 3 4 6 7 9 8 6 6
3 5 13 8 10 10 11 14 20 19 19 18 15 15 13 15 17 16 24 26 22 25 11 4 3 7 8 9 9 7 5 4
4 9 17 17 18 18 18 19 19 16 15 14 13 13 13 15 17 22 25 25 24 19 10 7 6 8 9 6 6 7 7 10
7 13 18 18 17 17 17 16 14 14 15 16 18 18 19 21 22 24 25 24 20 9 9 2 13 6 8 11 12 10 10 12
7 12 15 17 17 17 15 15 14 13 14 17 18 20 21 22 24 26 25 18 7 7 2 6 4 5 11 14 12 12 14 13
6 12 15 18 18 17 15 10 9 11 13 14 16 17 19 22 24 23 20 12 7 10 10 12 8 12 12 12 13 14 15 13
9 14 16 15 15 12 11 6 5 7 10 11 12 14 17 20 22 20 17 8 10 11 10 11 17 13 10 11 13 14 13 12
7 11 13 13 12 8 4 2 2 6 7 8 10 14 17 19 20 19 16 12 8 12 17 12 9 11 11 11 13 13 12 11
5 7 12 11 10 8 7 3 4 5 6 8 11 15 17 20 20 18 17 18 18 13 11 11 11 12 12 11 11 10 12 16
7 7 13 14 12 11 8 7 8 8 8 9 12 16 18 20 21 18 17 16 14 15 15 8 11 11 10 8 9 13 17 20
7 11 17 16 16 13 9 11 10 10 11 12 14 17 19 22 22 19 17 12 12 10 10 12 9 3 5 7 11 16 20 19
8 12 20 21 15 12 12 11 13 13 13 15 16 17 20 23 20 17 15 14 17 15 17 8 1 5 9 11 14 17 17 17
9 16 18 17 12 12 12 14 15 15 16 18 18 17 21 24 20 18 18 18 17 13 9 2 4 7 10 14 16 16 17 19

GFSFLT1_925_spd_003.txt.gz
Wind_Speed
10 13 16 20 24 27 25 16 13 10 7 4 9 8 5 4 7 6 5 5 4 4 3 2 3 4 6 7 8 8 7 10
13 17 21 24 27 28 22 18 11 9 15 17 11 5 2 3 3 3 3 3 4 4 5 7 9 11 13 13 11 10 9 12
14 18 22 24 27 24 20 16 18 19 19 11 4 4 4 3 1 3 4 4 5 7 11 15 14 12 11 9 7 6 6 8
13 17 17 18 20 20 21 21 22 12 7 7 6 5 4 1 2 3 6 11 13 14 17 15 14 13 7 3 4 6 8 7
14 13 15 19 21 20 19 17 11 8 5 4 4 4 4 5 5 5 9 12 14 16 16 16 13 7 2 1 4 7 8 9
14 19 20 19 20 15 15 13 10 8 9 11 12 13 12 10 7 9 13 15 18 19 18 18 13 5 2 1 3 4 6 6
12 12 13 15 16 15 16 15 16 17 19 19 17 13 10 10 12 14 16 21 23 21 20 17 9 7 3 1 3 3 2 2
7 10 10 10 15 17 21 22 21 18 14 12 11 11 12 13 14 15 19 19 20 20 20 13 9 5 0 3 2 3 3 4
7 7 10 14 18 20 21 19 18 16 14 13 12 12 12 13 15 17 19 19 20 21 12 11 7 2 0 3 6 7 7 7
8 11 13 15 18 18 20 19 18 14 11 10 10 12 15 17 20 22 22 22 18 12 8 9 3 1 11 7 8 9 8 10
10 12 13 13 16 17 17 15 14 11 9 10 11 13 16 20 22 23 22 20 15 6 9 5 7 12 7 10 9 10 12 11
11 12 12 15 16 16 16 12 8 8 8 8 10 13 16 18 20 20 19 16 12 6 9 8 15 7 10 8 9 10 12 12
13 15 16 16 15 14 12 8 5 5 5 7 8 11 13 16 18 18 16 13 10 7 9 11 12 14 7 9 11 10 13 10
12 15 15 15 13 11 8 4 1 1 4 5 7 9 13 15 17 18 16 13 11 13 14 14 10 11 9 12 12 11 10 9
12 12 14 13 12 11 6 6 4 3 4 6 7 9 13 15 18 18 16 13 12 10 12 13 13 8 11 9 8 8 9 11
11 12 16 16 14 11 9 6 5 6 8 9 9 11 14 16 20 20 16 13 9 12 12 8 9 9 6 4 6 8 12 15
12 15 18 13 12 11 10 8 6 8 11 12 12 12 15 17 21 20 16 14 11 12 13 9 6 5 7 6 9 9 12 13
13 16 19 19 16 14 10 7 7 11 13 15 14 15 17 17 21 19 14 14 13 12 11 7 5 2 6 10 14 10 11 13
13 17 17 18 16 13 11 8 11 14 16 16 16 17 17 17 20 16 14 14 13 11 9 6 4 3 7 12 16 11 11 12

GFSFLT1_925_spd_006.txt.gz
Wind_Speed
10 12 14 18 19 19 18 15 13 7 2 2 7 7 5 6 5 5 4 3 3 2 3 4 5 7 8 9 10 12 13 14
11 12 16 19 20 20 19 15 9 5 5 7 6 3 3 4 4 5 4 3 4 4 4 6 8 10 11 11 13 16 16 14
13 15 18 20 21 18 14 12 10 9 8 6 2 2 4 5 4 3 4 5 5 7 9 11 12 15 15 13 11 12 13 10
13 17 18 18 18 16 14 13 12 8 4 3 4 5 4 1 3 4 5 7 9 10 11 12 13 14 16 11 8 8 11 12
15 18 17 17 15 14 16 15 9 6 5 7 8 6 4 4 5 6 8 10 12 14 15 15 15 15 14 10 8 6 7 12
14 17 18 18 16 16 15 14 11 10 11 10 8 7 6 5 7 11 13 15 16 18 18 18 18 15 12 8 6 6 10 11
16 18 17 16 14 14 14 15 14 13 13 12 11 9 8 9 11 13 15 18 19 19 19 19 17 13 9 6 4 7 11 12
15 17 18 16 14 14 15 15 15 12 12 11 11 10 8 8 11 13 16 17 18 19 19 17 13 9 6 4 4 8 10 10
16 19 17 17 16 15 16 15 14 12 11 11 9 7 7 8 10 12 14 16 17 18 16 10 6 5 3 6 12 9 9 10
16 15 16 17 18 17 16 15 14 11 9 8 6 5 5 7 10 13 14 15 16 15 11 5 5 4 9 11 11 9 8 11
14 16 17 18 19 17 16 15 14 12 9 6 4 3 4 8 12 14 14 15 15 14 9 7 7 12 12 13 11 9 9 13
15 17 18 19 18 17 16 14 13 12 9 5 3 2 5 8 11 13 14 14 14 12 10 10 13 16 17 15 11 11 11 14
16 19 20 20 19 18 16 15 13 10 8 6 2 2 4 7 11 13 13 14 13 12 11 13 17 19 15 9 11 13 14 16
16 20 21 21 20 18 16 14 11 9 7 4 1 2 4 8 11 13 14 14 13 12 13 13 13 11 11 11 12 13 13 15
16 17 21 21 21 18 15 13 11 8 5 4 5 5 6 8 11 13 14 13 12 11 11 13 12 11 10 11 11 11 12 15
18 17 20 22 21 17 13 13 10 8 6 6 7 7 8 9 11 14 15 13 12 11 10 9 9 8 6 5 9 12 15 15
18 18 22 22 21 17 15 12 10 8 7 8 9 9 10 11 13 14 15 14 13 13 14 11 9 6 8 7 7 11 13 15
19 19 21 20 21 16 15 12 10 9 8 9 10 11 11 13 13 14 15 13 13 14 15 11 10 6 7 8 10 10 13 13
17 18 18 19 19 15 13 12 10 8 8 10 10 11 13 14 14 15 15 13 13 12 12 10 8 6 6 8 12 10 12 11

GFSFLT1_925_spd_009.txt.gz
Wind_Speed
15 16 17 18 18 18 18 16 13 7 3 7 9 10 7 6 6 6 5 4 4 4 4 5 8 11 13 14 17 18 19 21
13 13 15 17 18 18 17 14 10 8 7 8 8 7 6 6 6 5 5 5 5 6 7 10 13 14 16 17 18 19 22 23
13 14 16 17 18 17 16 12 10 9 8 6 4 4 5 6 5 5 5 6 7 9 11 13 15 17 18 19 19 19 19 19
13 16 16 16 17 17 15 13 13 9 8 6 6 6 5 3 3 3 6 7 10 12 14 16 17 19 20 20 19 15 18 17
14 17 18 17 18 16 15 15 12 7 6 6 6 7 7 5 4 6 9 10 13 15 17 18 18 19 20 19 16 11 17 16
16 21 23 21 18 17 17 14 11 10 10 8 6 6 4 3 5 8 11 13 14 15 16 18 18 18 18 16 14 14 14 16
16 19 20 18 18 16 16 15 13 12 12 11 10 8 4 4 6 8 10 12 13 14 15 17 17 17 15 14 9 10 10 14
17 18 21 21 19 17 17 15 14 13 12 11 10 6 5 5 7 8 10 11 12 14 16 17 16 14 10 7 7 11 12 12
17 20 20 19 19 18 17 17 16 14 13 11 8 5 5 3 5 7 8 10 12 14 15 15 13 8 5 6 11 12 13 14
18 20 20 20 19 19 19 18 17 15 13 10 7 5 5 3 4 6 8 10 12 13 14 13 7 10 9 13 13 15 15 9
17 20 20 19 21 20 20 19 18 15 12 10 9 5 3 1 4 7 8 10 11 13 13 13 11 11 14 16 18 16 13 12
17 18 19 20 21 22 21 20 17 14 12 11 9 7 4 3 4 6 9 11 12 13 13 13 14 15 18 19 17 17 15 13
17 19 20 22 23 23 23 20 17 14 13 12 10 8 6 5 6 7 9 11 12 13 12 13 15 17 17 14 14 13 15 15
17 19 22 23 25 25 23 19 16 16 14 12 11 9 8 7 8 9 10 11 13 12 12 14 14 13 14 15 14 14 14 15
17 16 21 24 26 25 22 19 18 17 15 12 10 10 9 9 9 10 11 12 13 12 12 12 13 12 12 13 13 14 15 17
17 16 19 24 25 25 22 20 18 18 14 12 10 10 10 11 11 12 12 12 12 12 12 13 11 12 9 7 12 14 13 16
17 18 22 24 26 26 22 19 20 17 14 11 9 9 11 12 13 13 13 13 13 13 13 12 12 12 8 10 7 10 13 16
17 18 22 25 26 25 21 20 18 16 13 11 9 10 11 13 14 15 15 14 13 14 13 13 10 8 9 9 8 9 13 15
15 18 22 24 23 23 19 19 18 14 12 8 10 10 12 14 16 16 16 15 15 13 13 11 10 6 10 9 8 9 13 13

GFSFLT1_925_spd_012.txt.gz
Wind_Speed
20 20 20 25 25 22 21 20 16 12 10 11 11 13 13 14 12 9 11 10 8 5 9 9 8 11 12 16 16 15 16 16
18 20 21 25 26 23 21 19 15 13 16 17 16 16 13 13 10 10 8 9 8 9 6 9 11 12 15 15 17 14 15 16
15 15 23 24 25 24 21 20 15 14 14 14 12 19 17 13 10 10 8 7 7 7 9 11 12 13 15 15 17 18 13 12
12 15 15 18 26 25 21 18 16 12 16 12 11 12 11 13 10 10 9 7 7 8 10 11 13 13 13 16 17 16 9 12
13 14 16 18 23 21 22 20 16 12 9 15 13 12 14 11 8 8 6 6 7 9 11 13 15 14 15 15 14 15 10 10
15 18 16 16 22 20 19 20 15 12 12 13 13 15 13 11 8 5 5 7 7 8 10 13 15 15 15 16 15 6 5 10
14 23 23 24 23 20 22 19 16 15 15 16 18 15 11 9 5 3 6 7 8 9 10 12 13 14 14 7 5 6 8 8
15 18 23 22 21 21 20 20 19 17 17 17 17 14 11 9 5 3 4 6 8 9 11 12 13 12 7 9 9 9 13 11
11 15 19 19 19 19 20 22 20 20 19 18 15 13 11 9 6 3 0 4 7 10 9 11 11 6 10 7 8 13 11 12
14 18 20 23 22 22 22 23 22 21 20 17 15 13 13 10 6 3 2 4 7 9 10 11 13 9 10 11 11 14 15 10
11 16 20 22 23 22 22 23 24 23 21 17 16 15 12 9 6 3 2 6 7 9 10 11 13 13 10 11 14 13 13 12
13 15 21 23 24 23 22 22 24 24 19 18 18 16 14 10 7 4 3 6 8 10 11 11 12 13 15 13 15 17 15 12
14 17 20 21 22 22 24 22 23 22 18 20 17 16 13 10 7 4 5 6 8 10 12 12 13 14 10 12 14 14 13 12
14 16 17 18 19 20 22 22 21 19 20 18 17 17 13 9 6 5 6 7 9 11 12 14 12 11 11 12 12 8 11 10
13 13 16 19 19 20 20 21 18 19 18 17 19 17 12 7 5 7 8 8 9 12 14 16 11 11 11 11 7 8 10 11
12 11 11 19 20 21 21 21 20 18 16 19 14 11 8 6 7 9 10 9 11 13 14 16 11 11 11 6 7 8 9 12
5 5 9 16 19 21 22 21 20 18 19 15 8 5 5 2 8 12 13 14 14 12 13 14 12 9 11 10 10 7 8 11
6 3 7 12 18 21 22 21 20 18 17 12 9 5 0 16 12 15 14 15 15 13 14 13 11 9 11 11 10 7 9 10
4 4 8 14 15 19 22 21 19 18 14 8 3 6 9 13 12 14 16 15 14 14 14 13 10 6 9 11 9 6 6 10

GFSFLT1_925_spd_015.txt.gz
Wind_Speed
27 33 37 36 32 29 30 27 25 20 17 15 18 20 19 18 16 14 10 8 9 10 6 7 6 4 7 11 13 11 10 12
29 33 38 38 35 32 30 28 23 20 20 21 22 22 24 17 14 13 13 13 9 5 1 4 6 9 10 11 9 12 14 8
19 29 34 38 38 35 31 26 23 23 23 27 27 28 20 15 16 13 9 6 5 4 4 5 6 8 9 8 11 13 10 6
12 22 33 34 38 37 34 28 22 24 23 27 26 25 22 21 19 14 12 9 6 2 4 6 8 10 9 10 10 5 5 4
12 15 24 31 33 37 34 29 22 27 31 33 34 30 24 23 19 14 8 3 2 4 5 7 11 13 13 11 11 9 1 6
13 15 24 31 34 33 31 27 29 22 24 26 26 29 26 23 16 9 5 2 1 2 5 9 12 11 13 10 3 3 8 8
11 21 27 28 29 29 30 31 25 26 25 25 29 30 25 18 12 8 6 5 2 2 6 9 10 10 4 4 7 8 9 10
12 12 19 28 23 32 32 30 26 24 25 27 27 24 19 14 12 8 6 5 1 3 8 7 9 10 4 7 12 10 10 9
13 17 20 22 30 32 31 30 27 24 23 21 19 17 15 13 12 8 5 2 2 4 4 7 7 8 7 11 10 12 11 8
13 12 22 27 31 28 30 30 27 24 22 20 18 17 17 15 11 7 5 0 3 6 8 8 9 8 10 11 11 11 9 11
8 15 22 28 31 27 23 28 28 27 24 22 19 17 15 12 10 8 5 2 4 5 7 9 9 10 9 9 7 5 9 10
11 17 25 33 33 30 26 27 30 28 25 22 16 14 13 11 10 7 6 3 4 5 7 10 10 10 11 7 8 8 6 2
13 21 26 28 32 35 33 28 34 31 28 20 17 16 15 11 10 9 5 6 4 5 8 10 12 13 5 10 12 10 2 5
13 14 22 27 28 32 36 30 35 34 28 21 21 18 16 14 11 7 8 5 6 7 10 12 12 9 10 10 10 1 1 3
13 13 15 27 32 35 37 33 34 34 27 26 25 20 19 16 13 9 6 7 8 9 12 14 16 11 10 9 8 5 5 3
7 9 9 21 24 24 31 32 31 31 28 28 21 20 21 15 7 1 9 10 12 15 15 17 16 16 13 13 12 12 8 9
7 5 10 18 23 26 30 31 31 29 29 22 15 19 16 11 5 11 13 14 18 23 19 17 16 13 14 14 12 11 8 8
7 6 9 16 24 30 33 33 32 29 26 19 23 22 13 7 3 9 18 19 21 21 21 21 17 14 13 13 11 10 8 6
6 3 5 16 25 29 31 30 31 28 22 23 19 14 7 7 8 19 15 14 16 16 20 19 17 15 12 12 11 10 7 7

GFSFLT1_925_spd_018.txt.gz
Wind_Speed
30 30 34 41 37 34 31 33 30 26 22 19 18 22 22 21 20 18 16 13 12 8 7 5 4 4 6 9 11 9 9 10
32 34 35 38 36 37 35 33 29 26 24 26 26 24 22 20 18 16 15 12 9 5 2 2 5 6 7 9 7 9 10 6
24 30 32 38 40 36 36 32 29 27 23 27 26 26 23 20 18 16 13 12 8 4 2 3 3 4 3 4 6 7 5 3
19 29 34 34 35 39 38 36 31 28 25 28 27 27 22 21 19 16 14 10 7 4 5 3 2 4 4 4 4 1 4 5
17 25 27 32 37 43 41 38 35 30 27 31 35 32 27 26 23 21 17 11 8 6 3 1 4 4 4 4 4 3 4 3
18 27 34 35 39 41 42 38 32 33 33 35 38 32 29 28 25 21 15 11 7 4 1 2 4 5 4 3 6 6 5 2
9 24 28 28 33 33 30 32 30 34 36 39 41 36 30 29 25 19 14 11 7 4 2 5 5 4 2 1 4 5 3 2
14 15 24 25 29 32 31 32 31 33 34 36 39 35 35 29 23 17 14 12 8 4 2 3 4 1 1 5 7 5 4 4
15 17 24 28 32 36 36 37 34 30 31 31 33 32 27 21 16 13 12 9 5 4 4 5 5 3 4 7 8 6 7 7
12 15 23 27 32 36 39 37 35 33 30 29 27 23 20 17 14 11 9 6 3 1 2 5 6 6 6 6 9 10 10 10
9 14 19 23 31 39 39 38 36 32 29 26 25 22 18 16 13 10 8 4 2 2 3 5 7 8 9 8 6 6 7 9
13 15 25 31 31 35 39 38 36 34 31 29 27 24 21 18 15 14 6 5 1 3 4 7 8 8 9 9 6 8 7 6
15 20 25 28 33 37 41 40 39 39 36 36 32 27 24 21 17 13 11 7 5 5 5 8 9 10 11 8 8 8 8 7
8 11 20 27 32 33 36 42 43 41 40 36 31 27 25 23 20 17 15 10 8 7 8 9 10 11 12 12 13 12 9 7
7 9 15 24 29 32 27 26 29 36 37 35 32 30 28 24 22 21 13 11 10 8 11 10 11 12 14 18 14 11 11 10
5 5 6 15 18 21 21 27 33 37 37 36 33 31 28 26 23 18 10 9 5 10 12 18 18 18 19 22 19 16 13 10
3 5 9 18 23 24 25 30 34 37 37 37 32 30 28 22 21 15 8 3 5 12 17 22 25 23 22 22 21 18 16 13
5 2 7 15 22 30 31 34 34 35 33 28 29 25 29 23 15 12 8 5 9 19 25 24 22 26 23 22 20 16 11 12
7 8 3 14 23 30 31 32 29 24 21 22 25 29 23 18 13 11 8 6 13 16 20 20 21 21 21 20 19 16 14 15

GFSFLT1_925_spd_021.txt.gz
Wind_Speed
23 25 25 29 30 28 27 28 27 27 27 25 22 20 17 17 18 19 18 17 15 11 9 7 6 3 1 3 5 4 5 6
27 27 28 30 31 29 26 28 30 31 29 26 22 22 21 20 20 18 17 16 14 10 7 6 2 2 4 4 3 5 5 4
22 25 27 33 37 35 31 34 33 31 30 25 22 24 23 22 20 19 17 15 13 8 6 2 1 3 4 4 5 4 3 2
17 24 28 30 33 38 38 39 36 32 29 26 24 24 22 22 22 21 17 13 10 7 4 1 2 6 7 7 5 2 2 2
13 21 26 31 36 40 44 42 39 35 31 29 31 34 27 26 25 19 16 11 8 5 2 2 4 7 8 7 5 2 1 3
17 24 30 30 32 34 39 39 40 37 33 32 35 32 29 26 23 20 16 12 8 4 1 3 5 5 4 3 3 4 3 1
13 23 24 25 30 33 36 37 40 38 35 35 37 35 33 28 26 23 18 14 9 6 3 4 6 5 3 2 2 2 1 1
11 15 22 25 31 36 38 38 37 41 37 38 38 38 35 33 31 25 20 16 12 8 4 3 4 4 4 5 2 2 2 1
15 19 26 27 30 33 33 36 35 39 39 40 38 37 35 35 29 23 19 15 10 7 5 6 4 5 5 8 7 4 5 5
15 18 27 28 28 35 40 39 36 35 35 35 35 35 35 33 27 21 18 14 13 12 4 3 6 5 5 5 7 7 7 8
9 14 23 28 31 34 40 42 43 43 38 35 31 32 34 31 27 24 22 21 17 9 10 7 5 6 5 4 6 6 6 9
11 15 23 27 29 35 39 40 38 38 37 37 37 36 34 29 27 25 24 18 12 11 9 5 5 7 5 6 6 5 8 8
12 15 20 25 29 33 38 38 40 41 40 39 38 35 33 31 29 26 23 17 14 11 8 5 3 6 7 8 10 10 10 10
3 6 12 19 24 27 30 33 33 32 37 36 34 35 36 34 30 27 22 19 15 12 8 5 3 8 11 11 14 15 14 13
5 4 6 15 19 18 20 24 27 29 30 34 36 39 38 35 30 29 25 21 17 11 8 5 10 11 12 14 17 20 18 16
6 5 5 10 13 15 22 27 29 32 35 35 39 39 35 32 30 27 25 19 14 9 6 8 17 15 18 20 21 23 21 17
3 5 7 13 18 23 23 27 30 29 33 36 35 34 30 29 27 22 15 11 6 3 8 15 19 22 25 24 25 25 24 18
9 8 8 9 15 21 28 31 31 35 37 31 27 28 25 23 21 19 15 9 2 13 13 18 19 21 20 20 22 24 24 21
6 8 10 8 7 10 14 16 21 19 15 17 18 20 25 25 22 15 9 4 11 12 16 19 17 17 17 17 19 22 23 19

GFSFLT1_925_spd_024.txt.gz
Wind_Speed
19 24 27 26 26 25 23 22 20 21 20 18 21 20 19 18 18 18 18 18 17 15 13 12 10 6 3 3 4 6 4 3
18 24 26 24 25 25 25 24 24 24 25 23 23 22 21 19 17 17 18 19 17 15 13 9 7 5 6 5 5 4 4 4
14 20 26 29 30 28 27 27 28 28 31 31 26 25 21 18 18 18 18 19 17 14 10 8 7 5 4 3 3 5 4 3
11 17 24 29 32 34 34 31 31 32 34 31 25 23 20 21 21 20 20 17 15 12 9 7 4 3 3 3 4 5 4 2
12 20 23 27 30 33 34 34 33 35 34 33 31 32 27 25 27 23 20 16 14 11 8 6 4 3 5 7 6 5 4 3
15 21 28 31 35 36 37 36 35 38 38 36 33 32 32 26 26 24 20 17 14 11 8 6 5 5 7 5 7 7 4 1
13 19 22 25 35 37 37 37 38 39 38 37 36 34 33 27 28 25 23 21 17 13 9 7 6 4 4 3 5 3 1 1
11 14 21 24 34 38 37 37 35 38 39 40 37 38 35 32 35 32 27 24 21 16 10 6 2 2 2 3 1 2 4 6
16 18 25 27 29 32 33 34 34 39 40 41 38 35 36 36 36 35 34 29 23 18 14 11 6 6 3 8 8 9 9 10
13 15 24 25 26 34 40 35 36 40 43 43 41 37 38 39 36 36 33 27 22 19 16 7 8 6 7 10 12 12 10 10
8 9 19 25 30 32 33 36 41 46 43 41 41 39 37 38 37 37 31 27 24 19 12 9 9 9 9 8 10 12 11 9
7 8 18 24 25 30 36 38 35 37 36 36 36 35 34 34 35 36 33 27 24 20 14 14 12 11 10 10 12 13 12 10
6 6 11 17 25 21 29 29 32 35 35 33 32 29 28 30 35 34 30 29 24 17 16 15 12 11 9 12 14 16 14 13
6 6 9 12 8 17 18 24 29 33 32 32 30 30 32 35 36 34 31 28 21 20 18 15 11 5 11 13 14 15 16 18
5 3 2 7 10 14 16 22 26 28 29 30 33 36 37 36 35 33 30 25 23 20 16 13 7 5 13 15 17 18 20 22
0 2 4 7 9 13 18 20 23 25 25 27 28 29 31 31 32 30 28 26 23 21 19 12 6 11 17 18 21 25 26 26
8 7 6 3 6 12 16 21 24 25 27 29 28 27 27 26 26 24 22 20 17 13 8 2 11 15 18 21 21 25 26 29
8 8 9 15 13 8 5 11 15 18 19 19 20 20 20 21 22 21 19 16 12 4 2 13 18 17 21 20 20 22 25 26
8 9 15 19 14 12 7 2 5 10 8 10 14 17 17 16 20 21 13 9 9 6 12 18 16 20 20 20 20 22 24 26

GFSFLT1_925_spd_027.txt.gz
Wind_Speed
15 19 19 20 20 20 21 23 21 18 19 19 19 18 17 18 18 19 19 19 19 17 14 14 12 10 7 6 4 5 5 5
16 18 21 21 22 22 23 23 23 22 22 18 18 19 20 20 20 20 20 21 19 17 16 14 13 9 7 7 7 6 4 6
15 19 21 24 25 25 24 26 27 28 26 24 21 23 21 21 21 20 20 20 19 17 16 15 12 10 9 8 9 6 4 7
14 20 25 26 26 27 26 25 27 28 29 27 21 22 19 17 18 19 21 21 20 18 16 14 12 9 8 8 9 9 10 6
15 21 26 29 29 27 28 29 33 32 32 31 32 24 18 17 21 22 24 23 22 20 18 15 11 10 9 9 8 6 5 6
19 23 26 26 26 28 30 29 31 30 33 32 30 26 24 22 25 26 25 24 22 22 20 17 15 14 14 9 6 5 8 8
19 24 24 26 26 26 30 28 27 27 32 33 34 35 31 25 29 29 27 25 24 23 21 18 17 17 14 10 6 11 7 4
18 19 26 27 28 28 27 27 27 29 33 35 37 39 34 33 34 36 35 32 31 29 25 21 20 16 11 12 11 11 8 6
19 21 25 27 28 28 27 28 28 28 33 36 39 37 35 32 32 35 37 35 32 30 25 22 19 10 11 15 13 11 9 10
16 19 25 26 25 29 32 28 27 27 33 34 36 37 36 35 35 37 37 34 32 29 26 23 16 16 17 15 10 9 9 9
10 13 20 21 23 22 22 26 30 31 27 29 33 35 37 35 35 37 35 33 30 30 26 21 15 19 16 14 9 10 11 11
5 9 14 17 17 21 25 27 25 24 24 33 34 35 33 33 34 34 34 32 33 31 27 20 20 18 13 9 8 11 14 14
5 6 6 9 14 15 17 18 20 21 28 30 30 29 28 31 31 35 34 35 36 32 28 24 23 16 12 8 8 14 17 17
3 2 4 5 7 8 12 15 19 22 23 22 20 19 19 20 22 28 29 34 33 29 24 22 19 14 10 11 9 16 20 21
2 2 3 5 8 10 10 11 13 14 15 16 16 16 16 16 19 22 28 32 32 27 21 16 14 9 6 8 14 19 22 23
7 5 4 2 2 3 4 5 7 8 11 11 12 13 13 14 18 24 27 27 27 25 24 20 14 5 8 16 17 19 21 24
12 12 12 11 7 4 3 3 4 5 5 5 6 7 9 14 17 18 18 21 22 21 21 20 14 10 16 17 20 20 23 24
11 10 11 11 12 11 8 4 1 0 1 2 3 6 8 10 12 13 16 19 17 17 14 8 7 14 20 18 20 25 23 22
9 11 13 14 13 15 14 12 10 8 7 5 5 7 8 10 12 15 17 18 13 10 9 11 16 21 20 20 23 27 25 26

GFSFLT1_925_spd_030.txt.gz
Wind_Speed
19 19 21 24 24 24 24 23 20 16 15 13 14 14 14 13 13 15 16 14 14 13 11 12 11 10 9 7 6 3 2 2
17 20 22 23 25 24 24 23 20 19 18 18 17 19 16 14 13 15 15 15 16 15 12 13 11 10 9 7 6 5 3 3
18 20 21 22 23 24 24 24 23 22 19 19 18 18 17 16 15 15 16 16 17 16 15 14 13 11 9 9 7 6 5 6
16 21 23 25 26 26 25 24 23 22 22 20 17 15 12 15 16 16 18 19 18 16 18 17 16 12 11 11 12 11 7 6
17 23 26 28 29 27 26 26 25 24 24 22 22 21 18 17 16 16 19 19 19 19 19 18 17 15 14 13 13 13 11 9
19 21 25 26 27 29 27 27 27 26 26 26 24 24 20 17 16 19 19 19 23 21 20 18 16 14 13 13 15 11 10 8
21 26 25 26 27 28 28 28 28 27 27 28 27 25 22 20 22 22 21 20 25 22 20 19 17 15 15 16 15 10 9 10
20 21 25 27 29 29 29 30 31 29 30 29 30 28 25 27 25 23 22 21 25 22 19 19 21 20 20 18 12 11 13 11
22 22 28 27 29 30 29 29 31 30 31 31 28 26 25 24 23 26 27 25 29 25 27 25 20 21 20 15 12 13 12 10
16 18 24 26 26 29 31 31 29 30 31 28 28 26 27 24 25 30 31 28 25 31 29 26 21 21 18 14 13 13 12 11
7 9 14 19 22 23 25 27 29 27 25 25 25 25 25 22 22 27 30 28 22 22 24 23 21 22 19 15 14 13 12 10
2 5 8 11 14 17 20 22 23 22 23 22 22 22 21 25 22 21 21 22 23 25 32 33 27 27 15 17 13 12 13 10
1 3 7 9 11 12 14 15 17 17 16 16 17 15 17 18 19 18 18 20 25 32 31 26 26 19 17 15 13 8 6 14
4 5 5 8 8 8 8 9 9 9 9 10 12 13 12 14 14 14 19 24 28 27 27 26 22 21 18 16 11 7 17 17
3 6 5 6 7 6 6 6 5 5 6 8 9 10 10 11 12 12 13 15 18 23 27 24 21 18 16 13 8 12 16 17
5 6 7 9 9 8 7 7 6 5 6 5 4 4 5 6 7 9 10 13 16 22 24 23 17 19 12 4 7 15 16 18
10 10 11 12 12 11 11 10 9 7 6 6 5 4 4 4 6 8 10 13 16 21 20 23 17 11 9 13 14 14 18 21
11 11 11 13 14 13 14 12 11 10 9 8 7 6 6 6 7 8 10 12 15 16 15 14 16 13 17 19 19 19 19 22
11 11 13 14 14 15 15 15 15 14 13 12 11 10 10 10 10 11 11 13 15 15 15 15 11 16 19 21 22 23 19 24

GFSFLT1_925_spd_033.txt.gz
Wind_Speed
20 23 22 23 27 28 25 24 24 25 19 16 17 18 19 21 14 17 16 16 14 13 12 11 12 11 10 11 8 6 5 4
17 20 25 23 26 27 26 25 25 24 21 23 21 21 21 18 16 17 15 16 15 14 13 13 13 13 13 11 9 8 7 6
20 23 24 28 27 26 27 27 25 24 23 22 20 20 22 20 17 17 17 17 16 15 16 15 16 16 14 13 12 11 8 8
19 23 26 26 28 30 29 28 27 26 24 21 20 19 20 20 17 17 18 18 19 19 18 17 18 17 16 16 14 12 10 8
19 23 27 29 29 28 28 28 28 28 26 23 24 23 23 20 21 19 19 21 20 20 19 19 18 17 16 16 13 12 8 7
21 23 30 31 31 31 30 29 29 28 27 27 25 24 22 21 21 19 23 20 20 19 19 18 18 16 14 14 13 12 8 7
20 27 29 29 30 31 31 31 30 29 29 29 28 25 26 23 22 20 20 20 18 18 16 16 16 14 12 10 11 11 4 10
20 21 23 28 31 30 30 32 32 31 31 30 31 29 27 25 19 19 19 18 18 22 21 17 17 19 19 23 16 13 14 18
21 22 25 28 30 32 32 32 32 32 33 35 31 29 27 22 21 19 21 22 23 22 28 28 26 28 24 17 19 16 18 12
19 21 28 29 30 30 31 32 31 31 33 26 26 24 24 23 20 22 24 31 32 28 22 24 31 26 22 22 19 20 15 14
7 13 20 27 28 28 29 31 30 29 26 26 27 25 23 23 21 23 26 23 20 19 24 23 26 28 28 24 24 19 16 13
4 5 10 15 19 23 25 26 27 26 24 23 21 20 22 24 22 20 19 17 18 21 23 24 28 33 28 26 20 17 15 12
4 6 7 10 14 17 19 20 22 21 19 20 20 20 21 23 21 17 19 19 20 22 22 24 28 30 23 19 18 14 14 9
6 6 8 10 12 13 15 15 16 17 19 17 15 13 14 15 15 18 16 18 18 20 24 24 25 23 18 20 17 15 6 8
7 7 8 11 10 10 11 10 9 9 9 9 10 10 11 12 12 10 11 15 17 16 18 23 20 19 18 16 15 9 9 21
6 8 8 10 11 10 12 11 11 10 9 8 9 7 7 7 7 8 9 11 9 10 16 16 21 17 18 17 12 13 18 20
7 8 9 9 11 13 13 13 12 12 12 11 9 8 7 6 6 6 7 7 8 11 15 15 19 18 16 17 18 15 14 16
11 11 11 13 15 15 15 14 13 13 13 12 11 10 10 9 9 9 8 8 10 13 17 20 22 17 16 18 15 16 18 22
13 12 15 16 17 17 16 15 15 14 14 13 12 12 12 11 11 10 9 9 10 11 11 11 11 9 10 14 19 20 21 25

GFSFLT1_925_spd_036.txt.gz
Wind_Speed
23 25 23 25 26 28 29 31 30 27 32 33 27 20 19 22 19 21 21 23 19 20 16 18 17 14 15 14 12 11 7 12
26 26 29 27 26 28 28 27 27 29 27 30 25 26 24 25 25 25 19 21 24 20 17 18 17 17 18 17 15 12 12 8
22 28 28 33 32 29 30 30 29 29 26 23 23 24 24 25 23 22 19 27 23 23 21 20 18 19 18 19 16 15 14 14
18 25 30 31 35 34 32 33 35 35 32 29 28 26 27 27 27 24 22 22 20 21 22 17 19 21 20 20 20 17 15 13
20 21 26 33 34 36 34 35 35 34 33 28 27 23 21 23 25 25 22 22 21 18 20 21 17 19 14 18 17 17 14 12
21 22 30 32 33 36 37 34 35 34 35 33 28 27 27 28 22 22 23 21 22 21 19 20 19 14 11 9 12 14 14 8
19 29 31 30 33 32 34 33 33 34 34 35 30 27 25 23 24 23 26 26 24 25 20 17 20 19 19 19 19 22 18 12
16 20 24 31 34 36 33 34 32 33 33 33 37 30 28 26 23 31 27 25 26 29 27 27 28 26 29 28 24 21 20 13
17 17 27 33 37 38 38 37 36 35 34 33 33 39 30 21 26 24 27 30 33 31 30 30 29 29 30 26 30 27 24 20
20 18 22 29 35 39 40 37 36 33 33 35 38 31 32 25 34 32 26 30 31 28 30 32 27 27 27 31 31 24 21 18
3 15 19 25 30 38 43 45 40 36 33 34 34 33 35 29 29 33 22 27 25 25 28 24 24 25 30 32 26 23 17 15
3 3 7 11 26 30 34 32 31 28 31 34 35 40 40 25 31 25 22 17 17 20 20 23 27 24 28 27 25 19 18 16
6 4 2 5 6 6 22 27 25 26 27 24 27 30 24 25 26 21 18 15 17 17 20 25 22 25 27 28 23 16 17 15
7 6 5 5 4 4 5 10 14 14 16 17 15 20 21 21 18 18 14 13 14 17 20 23 25 24 22 24 17 19 16 17
6 10 7 9 10 8 6 7 5 8 10 10 19 16 13 9 9 10 13 15 16 16 20 25 23 20 21 18 19 19 16 11
5 8 9 11 11 11 13 11 10 11 12 20 21 15 10 10 11 10 8 8 9 11 14 15 16 18 18 18 19 20 16 13
7 5 12 9 12 15 16 15 13 13 13 16 14 14 15 15 15 14 12 11 10 9 11 13 15 19 21 19 19 15 12 14
7 8 9 12 15 19 17 17 17 17 17 15 15 15 15 15 14 14 14 13 12 11 13 15 17 16 17 19 16 13 12 15
8 8 12 17 19 19 20 19 19 20 18 17 16 16 17 16 16 15 14 14 12 13 12 13 13 11 11 10 10 12 15 18

GFSFLT1_925_spd_039.txt.gz
Wind_Speed
24 23 22 26 29 29 34 38 36 38 37 37 36 40 35 37 29 26 22 23 18 19 20 17 19 20 16 14 15 16 17 15
25 28 29 28 31 31 35 35 37 33 32 30 32 29 30 30 24 20 25 25 25 22 22 18 25 23 19 20 18 18 13 12
24 26 28 29 32 31 34 36 37 33 32 31 28 29 26 25 23 25 23 26 27 24 26 22 26 23 22 23 24 19 18 14
19 25 29 33 33 34 36 36 33 34 33 31 30 26 26 29 28 28 28 29 28 25 28 25 26 24 26 24 27 26 18 14
19 25 29 34 35 36 35 35 34 36 36 32 31 29 24 28 32 33 33 30 29 29 34 32 26 25 26 22 26 22 14 12
22 25 35 36 38 39 37 38 38 38 39 37 34 33 32 35 34 35 35 33 32 31 32 29 25 28 27 22 23 21 17 14
23 34 36 37 38 37 39 39 40 43 43 45 36 34 36 36 34 31 37 37 36 36 29 29 31 29 28 27 27 28 29 26
22 23 27 35 38 42 40 40 40 42 41 42 44 41 40 40 36 36 31 31 33 27 32 32 34 35 30 30 31 31 25 28
23 25 32 35 41 42 43 42 40 41 43 44 45 41 39 41 36 29 29 27 30 36 34 36 32 34 33 33 29 27 26 29
17 23 33 37 40 44 45 44 43 40 39 40 42 46 42 38 41 30 33 35 32 31 34 33 33 33 31 25 24 27 31 26
13 15 31 37 42 45 46 45 46 49 46 43 45 48 48 44 32 37 32 29 30 34 35 32 29 27 23 20 26 29 28 24
10 9 15 31 39 40 40 37 26 32 27 38 38 46 51 47 41 34 19 25 32 29 30 23 24 24 22 22 28 29 25 17
7 8 7 7 19 34 28 38 45 50 39 35 40 29 18 17 21 24 20 34 27 23 23 23 24 24 22 24 28 26 21 17
8 6 2 1 4 9 31 38 45 34 35 38 31 28 29 31 24 24 28 24 19 18 18 21 24 26 24 23 23 23 17 17
8 8 7 5 3 12 21 28 29 30 35 26 27 24 23 24 24 24 23 20 18 18 19 23 25 24 21 19 20 17 16 17
8 8 7 9 12 17 23 20 21 30 27 24 27 26 24 23 22 19 16 14 14 14 19 24 24 21 17 16 17 17 18 17
8 9 9 9 15 19 21 21 22 27 30 29 26 24 22 19 18 15 14 12 10 12 14 17 17 15 14 15 16 18 18 16
9 12 11 14 21 26 24 22 25 28 28 27 27 27 25 22 19 18 15 14 12 11 12 13 14 13 15 17 16 17 14 10
10 9 10 18 26 29 26 26 27 27 26 26 27 27 26 25 23 22 20 17 15 15 15 14 15 17 16 16 13 10 8 8

GFSFLT1_925_spd_042.txt.gz
Wind_Speed
17 17 19 20 25 25 28 29 36 41 42 37 37 29 29 32 29 24 17 17 18 20 21 19 21 22 21 22 24 20 19 17
17 20 22 23 26 28 33 31 32 37 31 30 25 30 30 31 31 32 23 19 22 24 24 22 22 27 27 26 23 21 20 20
15 19 21 26 32 30 31 32 36 35 32 30 27 36 34 33 38 35 26 24 26 27 26 25 26 30 30 28 25 24 18 22
14 21 25 26 30 32 31 33 38 37 32 30 24 30 33 31 35 32 30 29 29 30 29 27 31 30 33 31 29 28 22 18
15 21 26 29 33 31 30 32 34 36 35 29 26 26 25 30 29 37 36 33 31 33 31 32 31 32 34 31 30 29 27 21
21 22 31 35 33 35 34 34 32 32 32 31 30 28 29 28 32 36 35 35 35 35 34 33 34 35 35 31 29 30 33 30
23 34 31 32 32 33 33 35 36 34 34 37 37 36 32 29 33 37 38 41 38 37 36 35 38 37 37 33 30 32 35 33
21 21 25 30 34 38 38 39 41 39 39 40 43 42 40 36 39 39 34 36 40 42 39 33 37 37 38 36 33 35 37 33
22 23 31 35 39 40 40 40 40 42 45 45 44 43 39 40 40 39 40 42 40 39 40 37 35 37 38 39 38 39 36 30
22 22 31 35 38 43 46 43 45 47 50 47 46 44 45 39 43 43 42 44 44 39 33 30 31 32 39 40 39 38 32 29
19 19 29 35 39 44 44 46 48 52 44 39 40 42 39 42 39 43 39 40 34 23 24 24 28 30 38 39 33 30 27 26
16 16 29 35 37 37 42 43 42 39 40 41 44 40 41 35 33 28 27 21 13 23 26 29 28 31 32 29 28 26 24 25
15 13 22 28 31 31 34 38 38 43 42 31 23 22 28 24 21 28 32 19 16 39 33 31 31 32 30 28 26 24 23 25
7 9 12 18 26 31 33 36 42 42 29 30 28 29 32 36 35 35 31 33 35 42 32 32 28 29 28 26 22 19 21 25
11 8 10 15 19 22 31 35 42 33 36 34 36 36 35 36 33 37 32 38 38 32 29 27 25 25 23 20 19 18 20 21
8 8 7 9 16 15 20 31 33 31 34 34 40 35 30 28 27 29 29 29 30 27 25 23 22 23 22 20 19 20 20 18
11 9 8 9 16 20 22 26 25 24 26 23 24 24 26 29 27 26 28 26 24 25 25 24 24 23 20 19 18 20 18 18
10 12 11 14 19 25 24 26 25 26 25 24 25 28 28 29 29 27 26 23 20 17 18 20 21 19 17 17 16 18 18 18
11 11 8 17 25 24 28 27 26 30 27 27 30 30 28 30 30 29 26 22 19 19 19 19 19 17 18 18 17 18 17 12

GFSFLT1_925_spd_045.txt.gz
Wind_Speed
13 13 12 15 19 24 26 28 33 31 28 32 27 27 26 25 25 23 22 24 16 18 20 18 20 21 22 24 22 21 21 19
18 14 16 17 20 21 22 27 31 29 27 31 26 31 24 22 24 24 22 18 15 18 19 18 21 25 26 25 26 24 21 20
11 17 19 19 24 23 23 22 29 31 30 29 23 28 27 24 23 27 22 18 15 15 18 21 22 25 27 27 27 25 22 19
11 16 20 24 25 28 25 26 26 27 28 28 28 26 28 28 30 29 28 24 19 18 23 27 26 27 29 30 31 30 25 22
10 13 19 26 30 31 30 31 30 32 30 31 29 25 24 26 29 33 34 32 28 24 24 30 28 29 30 33 34 34 30 24
16 16 24 26 28 32 31 32 35 37 35 32 31 28 28 31 31 33 36 41 35 28 30 28 31 33 31 34 36 36 32 28
15 18 19 21 24 28 32 31 32 36 38 41 37 33 31 30 35 36 35 37 39 35 33 34 36 34 35 37 38 36 36 35
14 14 16 22 26 30 31 32 34 36 38 37 40 39 41 35 35 37 37 39 39 42 38 38 37 38 35 37 38 38 38 38
17 18 22 25 29 32 33 34 36 40 39 38 37 38 36 40 36 32 35 40 40 42 40 38 40 36 27 35 36 36 37 36
19 18 26 27 29 34 38 38 39 38 43 40 39 37 39 35 34 31 35 40 41 38 36 38 38 31 32 44 32 33 39 38
18 17 25 31 34 37 35 38 39 42 36 37 35 34 36 37 32 33 38 40 39 39 38 31 27 27 40 43 41 33 35 39
15 18 28 35 33 32 36 35 38 35 38 37 34 36 33 32 36 39 41 36 34 32 30 21 21 27 35 32 33 32 33 35
13 15 23 27 32 33 37 40 38 42 38 38 40 38 38 39 43 48 41 40 35 33 27 27 37 32 31 30 32 32 33 30
10 8 12 21 29 31 34 37 42 42 38 39 38 40 42 47 50 42 41 38 36 37 33 36 39 34 34 32 33 30 27 25
9 11 14 20 26 32 33 36 41 37 38 38 39 40 46 44 42 38 37 39 41 43 39 38 36 31 30 29 28 24 20 19
7 7 10 10 18 24 29 35 33 32 33 35 40 39 35 34 34 37 34 33 36 38 39 35 30 30 28 27 23 21 19 19
11 9 8 9 17 24 27 29 32 35 34 34 30 32 33 33 32 33 30 31 31 31 30 29 28 23 22 20 19 19 19 19
11 11 15 12 21 28 26 27 26 30 28 26 30 29 28 27 26 26 27 29 28 24 24 23 20 19 19 19 18 18 18 18
10 10 10 20 22 22 21 20 23 25 22 22 23 24 24 24 26 26 26 24 22 20 18 17 18 18 19 19 18 18 19 19

GFSFLT1_925_spd_048.txt.gz
Wind_Speed
11 11 12 13 16 22 25 25 31 31 20 29 31 31 32 32 25 27 28 28 25 24 23 21 19 20 19 19 19 18 16 15
14 12 12 13 15 17 24 21 28 35 27 25 31 30 29 34 28 23 23 25 24 22 21 18 21 22 20 18 20 19 17 18
14 15 15 17 19 20 22 26 25 30 29 24 22 29 27 31 25 21 25 25 22 21 18 19 18 22 21 20 23 22 21 19
14 16 18 18 20 22 23 24 28 30 30 23 22 28 25 25 23 23 24 25 20 15 17 16 18 20 22 23 25 27 24 23
13 18 20 24 24 24 23 24 29 31 29 29 28 27 31 30 31 30 27 26 26 23 18 17 17 23 24 24 26 29 27 27
15 17 25 25 24 29 31 29 28 31 35 36 36 28 29 31 31 32 31 28 28 28 29 21 19 22 25 26 26 29 33 32
13 18 22 24 29 30 33 34 34 35 37 38 40 33 32 35 36 35 37 36 34 35 33 32 26 26 27 30 30 31 35 38
13 16 17 24 30 33 34 35 33 35 38 40 42 39 40 37 36 34 33 40 42 40 35 35 32 29 29 33 34 33 33 35
15 17 21 26 31 35 35 35 33 36 39 41 40 38 37 41 36 34 36 38 39 39 36 33 31 32 34 35 32 25 27 30
15 15 22 26 30 36 40 34 33 36 39 37 37 37 38 34 34 34 34 34 33 34 35 34 34 35 33 29 27 22 28 35
10 12 19 25 30 33 36 40 42 36 35 37 35 36 33 33 28 30 34 36 37 36 36 36 36 35 32 30 37 27 37 44
11 11 20 24 21 28 35 35 35 37 39 39 36 33 37 37 36 40 35 39 43 43 41 39 35 35 35 37 30 28 30 34
10 12 14 18 23 25 30 30 34 39 37 35 37 39 36 33 34 40 43 38 33 39 41 37 39 36 37 31 26 23 26 31
7 8 12 16 23 26 29 31 37 31 33 33 37 39 39 40 41 46 40 35 39 41 35 41 42 38 36 29 29 28 27 30
7 7 11 15 22 26 28 30 35 32 33 35 35 39 43 43 42 42 40 35 40 40 40 40 38 41 38 33 29 24 26 25
9 10 11 11 15 22 27 30 28 32 33 34 41 40 39 40 41 40 36 36 39 38 36 35 37 38 35 32 27 25 24 20
9 9 8 11 18 24 27 28 30 33 33 37 34 33 35 38 37 34 34 36 35 34 36 38 39 38 32 29 25 23 23 20
10 10 11 12 20 27 27 30 28 33 32 31 30 31 32 33 32 30 33 33 33 35 36 36 32 30 25 22 20 21 19 18
11 9 8 19 23 26 28 26 31 31 27 26 29 32 29 27 29 28 30 31 31 29 27 26 23 19 18 17 16 16 16 16

GFSFLT1_925_spd_054.txt.gz
Wind_Speed
11 11 11 11 11 17 20 19 24 23 27 27 30 34 30 27 26 20 18 21 23 20 19 18 19 18 16 15 15 14 15 14
13 13 12 13 12 13 21 25 28 27 28 26 25 28 37 35 38 22 18 23 24 21 20 19 20 19 18 17 15 15 14 14
14 15 16 16 16 16 21 24 31 31 29 27 23 29 34 35 38 25 19 23 23 23 21 21 21 19 18 17 17 15 14 16
16 16 18 19 20 20 19 24 31 32 32 27 22 24 25 28 31 29 26 23 25 25 24 22 23 21 20 20 18 16 15 16
17 17 20 21 21 21 21 22 30 31 34 30 32 30 27 29 35 29 28 25 26 27 24 23 23 22 21 21 19 19 19 17
19 19 22 21 21 23 23 23 25 31 34 32 34 27 26 26 27 27 27 26 27 26 24 24 24 22 21 22 20 20 21 23
18 21 21 21 22 23 24 25 26 30 35 32 35 32 28 26 30 29 33 33 28 25 25 23 25 22 21 22 21 19 21 21
18 20 20 23 25 26 26 28 28 30 33 36 35 35 34 34 35 35 32 30 33 35 27 24 22 21 19 19 21 18 20 21
17 21 22 26 28 29 29 30 30 32 34 36 37 39 38 35 35 37 35 36 35 35 28 27 26 24 24 22 21 22 21 22
15 19 26 28 30 31 32 31 31 32 35 35 37 38 38 39 37 36 36 37 37 36 33 33 31 28 28 27 27 26 25 27
12 16 23 28 29 29 29 30 32 33 34 36 37 40 41 38 37 38 39 38 39 38 38 36 34 33 32 31 31 30 30 29
8 14 21 26 26 29 31 32 32 33 35 36 36 38 40 40 39 40 41 40 39 40 41 40 39 40 37 35 35 35 33 32
6 11 16 23 28 29 32 33 35 36 35 35 36 35 36 38 40 41 39 40 38 39 38 41 42 40 38 36 35 32 32 31
5 6 12 17 25 28 31 33 37 35 35 36 36 37 38 40 42 41 39 37 37 36 38 39 39 37 36 34 33 32 32 29
10 7 10 15 21 27 29 32 33 34 35 35 37 38 42 42 37 36 37 37 35 37 37 37 36 35 34 35 33 32 32 28
14 11 10 12 18 24 27 29 30 32 34 35 39 39 37 35 35 35 34 34 35 35 33 33 33 33 33 33 30 29 28 28
18 15 12 12 17 22 24 27 31 31 34 38 35 34 34 36 35 33 32 33 34 33 33 34 33 32 33 35 31 28 26 31
21 20 16 11 15 21 24 27 26 31 33 32 33 32 33 33 31 32 34 33 31 32 32 32 33 32 31 33 33 31 31 31
21 19 19 19 16 16 21 22 26 29 30 30 29 31 31 29 28 29 28 28 29 28 26 26 26 28 32 35 34 31 28 26

GFSFLT1_925_spd_057.txt.gz
Wind_Speed
14 11 10 12 14 17 14 14 18 21 23 24 25 31 32 31 24 23 26 25 26 21 16 15 19 18 18 17 17 17 17 17
14 14 12 14 15 16 18 20 22 25 26 26 27 27 29 30 23 24 25 23 22 23 18 15 19 17 17 17 17 16 16 15
13 17 16 16 17 17 21 22 27 26 26 26 29 28 25 30 26 23 25 17 18 24 18 20 23 18 17 19 18 17 16 16
15 16 19 17 20 21 21 26 29 24 26 23 25 24 25 20 25 26 23 18 21 22 21 25 25 20 22 21 20 18 17 17
16 17 19 21 20 20 21 25 29 26 30 26 29 27 28 30 32 31 30 19 18 26 27 24 23 24 20 22 22 20 17 18
17 19 22 22 22 23 23 24 28 28 29 31 27 27 31 32 28 30 31 25 29 28 30 27 24 24 23 22 23 23 22 19
16 20 22 22 22 24 24 26 28 30 30 32 32 27 28 28 31 31 31 30 31 38 31 28 27 25 24 24 25 24 24 22
14 18 18 23 25 26 26 27 28 31 33 33 34 33 33 32 34 37 37 27 27 30 31 30 27 28 28 28 26 27 26 23
13 18 17 24 27 29 29 30 28 31 34 34 34 34 33 34 35 35 36 36 35 34 32 33 32 29 29 30 29 29 31 24
11 15 20 25 28 30 30 30 29 31 32 33 33 34 33 34 33 35 38 38 36 34 35 35 34 32 30 29 27 27 25 25
12 12 15 26 28 29 30 29 31 31 32 33 34 36 36 34 34 35 36 37 37 37 38 37 35 33 32 31 29 28 28 27
7 7 13 23 26 29 30 30 30 31 33 33 35 37 37 38 37 38 37 36 40 40 39 39 39 37 36 35 34 34 33 32
5 3 7 15 23 26 29 30 32 32 32 33 35 35 38 38 41 39 40 38 37 37 39 35 37 38 38 37 36 35 35 36
9 1 5 10 18 25 28 30 33 33 32 33 33 35 36 39 42 42 38 39 38 38 37 37 40 38 37 38 39 38 38 37
12 12 5 9 16 23 28 30 31 31 33 33 35 37 40 40 38 38 39 39 38 39 39 40 40 39 40 40 39 39 38 36
16 17 14 13 13 20 25 29 31 33 34 36 39 40 38 36 36 37 37 37 39 38 37 39 39 40 40 39 38 39 36 34
17 18 20 17 21 15 21 26 29 31 33 35 36 33 35 37 36 36 35 36 36 35 37 37 37 38 39 40 39 32 32 33
18 18 16 19 23 22 16 22 25 29 32 35 34 34 35 37 36 35 37 37 34 36 36 35 36 35 35 38 36 37 30 30
18 16 18 23 26 27 26 21 24 28 32 32 33 33 34 33 33 36 35 35 35 34 33 33 32 31 32 33 36 39 36 34

GFSFLT1_925_spd_060.txt.gz
Wind_Speed
15 12 14 19 18 14 14 14 14 14 13 13 19 22 35 37 43 42 32 23 23 23 20 19 21 24 21 22 21 20 20 20
20 16 14 24 19 17 17 16 17 16 19 20 24 23 26 34 35 34 31 28 25 16 14 16 17 18 19 18 18 16 15 20
15 19 16 18 23 21 19 19 21 21 25 19 18 31 28 32 27 27 25 29 29 20 18 21 20 15 19 20 20 16 15 19
17 16 18 18 22 23 23 22 25 23 25 24 23 25 29 28 23 29 26 28 29 28 25 29 30 20 18 20 22 18 18 18
19 17 19 20 22 24 26 24 27 24 27 25 29 24 26 30 28 32 29 30 32 32 26 29 29 25 19 24 26 23 20 21
19 19 22 23 21 27 27 26 27 27 28 28 28 26 27 32 23 27 30 34 29 31 30 24 24 28 28 28 27 27 23 21
15 22 25 25 24 27 29 29 28 29 31 28 29 29 29 30 26 28 27 26 31 30 32 28 27 26 31 24 26 27 29 25
13 19 17 23 27 28 27 30 28 30 33 32 33 29 31 32 34 33 33 29 27 29 33 36 28 30 29 30 26 28 29 32
10 16 17 22 27 29 29 28 28 31 33 34 32 33 30 30 35 36 36 34 31 31 35 39 33 32 34 33 33 33 34 32
7 10 16 23 27 29 30 30 30 32 34 33 34 34 34 33 33 36 37 37 32 31 31 35 42 31 35 35 35 34 34 35
10 9 14 23 27 29 29 29 29 33 34 34 34 36 36 34 35 36 37 38 39 34 33 34 39 40 39 35 33 36 35 35
4 4 13 25 28 29 31 29 29 30 35 35 35 36 36 36 38 38 40 40 40 40 39 39 38 35 36 35 34 33 33 33
6 4 3 5 21 25 29 29 27 29 32 35 37 36 36 37 39 38 39 40 39 42 44 41 41 42 39 38 38 36 36 34
12 11 3 4 11 18 23 29 30 27 29 34 35 38 40 42 43 41 40 40 39 40 41 43 42 41 41 43 42 40 39 39
15 16 17 18 2 14 18 22 28 30 28 30 35 38 41 44 41 40 42 42 43 42 43 44 45 43 42 44 43 42 42 42
13 14 14 15 20 21 10 21 26 30 31 30 35 35 36 35 38 41 41 42 41 43 41 43 42 41 45 45 43 42 41 41
11 12 14 16 22 24 27 26 21 27 32 34 33 32 33 37 37 37 36 41 42 40 42 43 42 44 46 48 45 39 40 39
13 13 14 16 21 26 26 29 29 19 26 32 32 32 34 37 37 35 37 39 38 41 42 40 41 42 44 45 45 44 38 37
11 11 15 19 22 27 32 31 31 28 23 27 30 33 34 36 34 37 39 39 38 38 38 39 38 40 38 42 42 42 42 39

GFSFLT1_925_spd_063.txt.gz
Wind_Speed
21 28 31 26 21 17 15 17 18 21 20 21 23 26 30 41 44 41 41 38 36 31 37 39 37 34 32 27 31 27 29 28
23 27 32 30 23 21 19 18 20 21 21 21 20 22 22 34 38 40 43 37 26 29 29 32 29 34 32 37 32 27 28 29
15 24 26 31 29 24 22 20 20 20 20 21 20 25 27 34 35 42 37 26 26 30 26 33 17 33 24 34 28 22 25 28
17 17 25 28 30 28 25 23 20 19 22 21 22 22 25 22 32 32 35 28 25 31 25 31 23 26 32 28 26 21 15 19
19 17 20 27 29 30 25 23 23 22 23 25 25 24 23 23 29 23 30 32 32 29 31 32 31 27 21 24 25 21 23 21
20 19 24 28 34 32 26 25 27 25 27 29 25 24 22 27 27 25 26 31 34 32 30 29 30 27 26 24 24 28 27 27
20 22 26 25 33 33 29 27 26 26 28 29 28 27 26 23 27 28 25 30 32 33 33 30 31 31 28 27 32 31 31 29
19 19 16 23 28 31 32 30 25 27 28 29 34 29 29 31 30 31 27 28 28 34 34 30 28 31 34 32 31 32 30 37
20 20 18 26 28 31 31 31 27 27 29 29 32 31 32 31 34 32 32 29 30 34 37 40 36 30 30 33 34 31 35 39
21 19 20 27 29 33 35 32 31 28 29 30 29 29 31 31 33 34 34 33 33 26 36 39 43 39 31 32 33 35 33 35
17 18 17 28 33 36 34 37 34 34 28 30 30 32 30 31 33 35 35 35 36 33 32 35 38 41 41 34 38 39 36 39
7 13 22 31 31 31 32 32 32 34 37 31 29 32 32 32 33 36 39 38 40 41 38 39 38 38 42 43 39 40 39 41
17 19 19 8 26 26 31 31 32 35 39 37 35 29 32 33 36 35 36 39 39 42 43 39 40 40 40 43 42 37 39 38
17 17 17 18 19 6 26 29 30 30 36 38 37 36 36 36 38 36 38 38 41 40 41 46 45 44 43 42 42 40 40 41
15 14 14 17 20 21 16 8 20 30 31 36 36 38 40 40 37 35 37 39 38 41 43 44 44 43 44 46 46 42 42 43
17 15 13 16 20 20 20 17 21 26 26 32 36 41 41 41 41 42 37 40 40 40 40 42 42 44 46 44 45 46 45 45
16 17 17 16 21 22 22 22 26 24 21 32 28 33 36 40 40 40 41 42 43 39 45 42 41 45 48 49 46 43 44 43
15 14 13 20 24 26 26 26 23 21 20 20 23 30 32 38 39 38 41 43 41 45 44 42 46 45 46 47 51 51 40 39
13 11 17 21 26 31 33 31 27 24 22 24 26 28 18 30 34 38 40 40 41 43 44 46 42 44 47 49 51 50 45 42

GFSFLT1_925_spd_066.txt.gz
Wind_Speed
19 27 32 32 30 27 25 23 26 25 25 26 25 26 32 35 37 36 38 36 37 38 38 39 40 40 40 35 31 28 27 24
18 25 31 32 32 30 28 27 26 27 27 25 22 25 29 33 36 33 41 35 37 37 37 39 39 39 40 36 29 33 31 27
13 21 26 29 31 32 29 28 27 28 27 24 18 22 26 30 37 33 37 40 37 36 35 39 39 40 38 36 33 29 27 32
15 16 25 27 28 33 33 31 29 28 27 23 17 20 17 23 28 32 36 36 37 34 33 38 39 38 36 35 37 31 23 33
18 17 20 26 27 33 33 30 29 26 25 23 24 20 15 18 25 31 35 36 28 30 32 36 31 36 34 39 36 34 29 27
20 20 26 27 30 31 34 31 29 27 28 27 24 18 19 20 23 28 31 35 27 32 32 38 26 32 33 34 24 30 31 33
20 18 22 24 27 29 33 33 31 30 29 30 28 24 19 22 22 25 32 32 30 30 31 34 33 26 26 30 34 30 30 32
17 17 16 23 27 27 29 32 29 33 30 30 27 28 28 27 28 26 31 30 29 34 36 35 37 29 27 30 34 34 33 36
19 19 17 24 28 28 28 29 28 32 32 31 30 31 32 29 31 29 30 31 33 40 37 37 39 38 38 38 33 33 35 36
19 17 16 23 28 32 32 31 29 32 31 31 33 31 30 30 33 31 32 32 29 33 39 40 40 37 36 37 36 34 35 39
15 15 15 23 27 27 28 32 31 32 32 30 30 33 32 32 33 34 33 36 34 30 35 39 40 38 36 34 34 36 37 40
6 5 5 6 13 22 26 27 26 28 32 30 30 30 29 30 32 37 38 37 38 34 36 39 40 42 43 41 38 36 39 40
16 12 13 14 12 10 8 10 18 27 30 30 31 31 32 30 31 31 36 36 39 42 39 39 40 42 42 43 41 38 37 37
18 19 16 18 21 8 11 10 12 14 17 23 26 29 31 33 33 31 34 37 38 39 41 42 39 38 39 43 43 41 41 40
15 15 15 20 23 23 23 17 9 13 25 27 26 30 33 34 34 34 35 36 35 37 41 41 42 42 42 42 40 41 42 43
16 14 13 17 20 21 21 21 22 25 9 24 27 29 29 29 30 32 35 36 37 36 36 38 40 41 45 44 44 45 43 43
17 14 14 13 19 18 18 21 23 23 23 23 9 24 29 33 32 32 34 37 38 38 40 40 40 43 46 48 47 42 42 42
14 14 14 18 19 16 18 20 21 24 24 24 24 22 19 16 28 31 35 38 36 37 41 39 43 44 48 50 50 49 42 41
15 12 16 22 22 21 16 18 20 20 21 23 24 25 20 20 19 15 27 37 37 41 41 43 44 46 51 51 50 52 48 47

GFSFLT1_925_spd_069.txt.gz
Wind_Speed
18 24 29 32 28 25 23 21 23 21 20 19 19 19 20 20 25 26 26 32 37 37 34 35 37 38 35 38 36 29 25 25
18 24 28 30 27 25 24 20 24 25 23 21 17 19 20 21 23 28 28 30 32 33 32 34 35 36 36 37 38 30 24 26
11 22 23 25 24 27 26 20 24 27 24 22 17 20 21 24 27 29 26 27 30 32 34 33 36 34 31 36 35 27 23 28
14 18 24 24 24 25 29 28 23 23 26 23 19 18 17 20 23 27 27 29 32 30 33 35 33 34 35 34 34 33 22 29
13 17 21 27 26 27 29 24 23 24 27 25 22 18 12 17 20 27 30 34 35 30 26 33 35 34 34 38 35 34 30 24
18 20 25 26 26 27 28 24 26 27 27 27 25 17 16 16 19 25 29 30 34 34 31 31 36 37 38 42 36 34 34 30
16 14 22 23 23 24 24 25 28 29 27 26 25 20 17 17 20 23 25 29 33 35 29 30 35 42 41 41 38 35 36 35
14 17 17 24 26 26 25 25 23 28 27 25 24 23 20 18 22 22 23 26 31 32 29 32 33 32 30 31 32 28 25 35
19 20 18 25 28 27 25 25 23 26 27 26 27 23 21 20 21 22 24 25 32 37 35 32 35 31 27 27 34 37 33 27
18 17 17 25 28 30 29 27 25 25 28 29 26 26 26 24 22 23 25 26 23 27 33 33 34 32 34 31 29 32 35 39
10 12 12 18 19 20 19 21 22 21 22 26 26 28 27 27 24 27 24 28 25 27 31 33 35 38 41 36 38 40 40 43
8 10 14 17 17 16 16 17 16 16 18 19 20 23 28 27 28 27 31 28 28 26 31 34 35 36 40 38 39 39 42 41
14 12 13 16 19 19 18 17 16 20 22 22 22 26 25 29 29 30 31 36 33 32 32 32 34 37 39 40 39 38 42 41
18 18 17 18 12 12 14 15 16 16 21 22 22 26 26 26 27 29 31 35 37 37 38 41 40 38 35 38 41 39 39 41
15 15 14 18 21 19 17 19 15 7 17 26 25 26 29 30 31 32 33 34 34 36 38 39 38 39 42 42 40 41 41 41
14 13 11 16 20 18 18 20 20 23 19 10 3 20 25 28 29 32 33 33 37 37 37 39 39 40 42 41 42 42 41 41
14 15 14 14 17 17 18 20 21 21 21 18 13 15 14 7 21 27 31 34 34 33 35 36 36 41 44 46 47 42 44 43
11 12 11 14 16 16 18 18 18 20 20 19 20 17 14 13 11 11 10 23 29 31 34 36 39 41 44 49 51 50 44 42
9 9 12 16 18 18 15 19 19 19 19 19 19 19 17 17 15 14 16 17 16 16 25 33 38 42 48 51 50 51 46 46

GFSFLT1_925_spd_072.txt.gz
Wind_Speed
18 20 25 26 27 26 22 20 20 18 16 18 16 14 16 18 17 23 31 31 38 35 33 33 36 37 37 36 36 31 28 26
17 23 27 28 27 26 22 21 22 20 19 16 17 16 15 16 14 7 35 30 40 34 33 33 36 37 36 34 33 33 25 26
8 20 25 29 27 28 20 21 23 23 23 18 14 16 14 14 15 17 27 26 31 33 32 34 36 37 37 38 34 28 21 30
11 15 23 24 26 26 23 23 23 24 24 19 14 14 9 12 16 18 21 25 28 31 30 29 33 36 36 38 36 31 23 30
12 13 16 28 26 23 23 22 22 24 24 21 21 14 10 10 16 20 21 25 26 29 31 28 31 32 33 37 38 31 29 26
15 19 23 26 25 24 27 23 21 24 25 23 22 16 15 14 15 18 22 25 29 31 32 35 34 34 35 34 36 35 27 29
9 10 18 21 22 21 26 20 18 21 24 24 23 20 16 13 14 17 21 24 30 32 29 37 33 33 32 32 36 36 32 24
13 16 17 23 25 23 24 23 19 20 23 22 21 19 18 15 16 18 20 19 26 32 35 31 28 29 30 33 33 35 34 30
15 18 18 25 25 25 24 22 17 18 20 19 18 18 18 17 17 19 21 22 23 29 32 32 29 27 32 34 31 33 32 33
13 13 13 24 25 24 22 20 15 14 19 18 16 16 16 18 17 17 19 21 22 26 32 32 30 31 30 31 35 37 39 34
10 9 11 17 19 19 18 18 17 16 16 18 17 16 16 17 18 17 17 19 16 21 27 29 29 29 30 31 32 35 41 41
10 10 14 16 17 16 15 17 16 15 16 15 17 17 16 15 17 18 19 17 20 19 23 28 28 30 32 33 34 34 34 32
12 12 15 17 17 17 15 14 14 13 15 15 15 15 17 17 18 18 17 19 19 20 21 24 28 31 32 35 35 32 33 35
15 16 15 15 16 12 10 7 6 11 13 14 15 17 18 21 19 19 20 20 23 24 25 25 27 30 34 37 39 40 40 42
15 15 14 19 23 21 21 20 13 3 11 16 15 18 19 21 21 21 21 22 23 27 31 33 34 35 36 35 34 37 37 37
15 14 13 17 22 21 20 22 19 18 18 15 13 5 12 17 20 23 25 26 28 28 30 32 34 36 38 38 36 36 36 36
14 14 14 15 18 18 20 20 17 18 16 15 12 11 9 8 5 3 13 23 28 31 33 33 32 36 35 37 40 37 37 37
12 12 13 14 16 17 17 16 14 18 18 18 17 14 11 10 8 6 5 5 6 5 9 20 26 31 36 39 42 44 39 38
11 10 15 14 17 16 15 16 15 17 18 18 18 17 16 14 12 11 10 10 10 11 13 15 16 13 17 17 26 39 44 44

GFSFLT1_925_spd_075.txt.gz
Wind_Speed
16 19 20 20 22 23 22 22 21 21 18 14 14 14 16 17 20 21 27 26 37 33 34 37 37 31 29 26 23 21 22 19
12 16 21 23 23 23 23 23 22 22 16 15 17 17 16 17 18 18 22 29 37 36 38 39 36 32 32 35 25 23 17 18
9 15 22 26 27 26 24 22 23 21 15 19 12 18 17 17 14 16 20 30 30 39 37 38 34 28 28 34 31 25 17 23
12 14 23 25 27 29 26 24 21 21 20 17 12 16 14 14 14 14 15 28 34 38 35 34 33 30 32 35 34 29 20 22
13 16 17 28 27 25 24 24 22 23 22 20 19 12 12 12 18 16 21 21 29 32 26 30 35 32 31 33 33 32 26 24
14 17 18 19 23 25 23 23 21 22 22 23 20 15 13 15 15 16 18 22 26 31 30 30 31 32 33 34 31 27 27 25
10 14 18 21 23 23 24 25 22 23 22 21 22 20 18 16 17 13 17 20 22 26 30 30 29 30 33 35 36 36 29 25
10 15 17 24 28 25 25 24 22 24 21 20 22 21 19 19 18 17 18 21 23 29 29 32 32 29 30 33 35 36 33 31
14 16 16 22 24 23 24 24 21 22 23 20 21 17 17 16 16 15 16 20 22 26 30 35 35 34 34 34 35 34 39 36
11 11 13 19 21 20 21 22 20 19 22 19 17 18 17 15 13 12 14 18 20 21 28 27 32 36 33 34 33 32 35 37
6 10 11 17 20 19 20 20 19 18 17 15 14 15 15 15 15 14 13 14 18 19 21 28 29 31 30 30 32 33 30 31
6 8 13 17 19 19 19 18 17 16 14 13 13 12 13 13 15 15 14 13 15 18 20 24 28 31 29 29 29 31 35 35
10 11 15 17 17 18 16 15 13 12 11 10 10 10 10 12 13 13 13 14 16 17 17 20 24 23 21 23 24 29 33 32
14 16 15 15 15 16 16 15 12 9 9 8 8 9 9 10 11 12 13 13 13 16 18 20 22 21 22 26 25 24 26 30
15 15 14 18 20 20 18 18 17 9 7 6 3 7 10 10 10 11 11 13 14 16 17 18 19 20 24 27 26 27 26 27
15 14 13 16 18 19 19 20 18 18 17 17 14 12 5 3 4 7 10 13 13 14 15 18 20 21 22 26 29 32 30 31
14 15 16 17 19 17 18 20 18 20 20 18 14 14 12 10 8 6 6 4 1 5 11 17 21 12 18 25 30 28 31 32
13 14 15 19 19 17 20 18 16 18 25 19 17 15 14 14 11 9 9 9 8 9 7 8 9 2 8 7 17 28 30 26
12 12 17 16 14 15 15 21 25 27 21 16 16 14 15 14 14 13 13 12 12 11 12 12 9 12 19 17 17 15 16 22

GFSFLT1_925_spd_078.txt.gz
Wind_Speed
12 9 15 19 24 25 22 21 20 17 15 14 13 12 17 18 20 23 26 30 31 35 31 34 34 35 31 24 25 23 22 21
14 10 15 20 24 26 24 23 22 21 17 15 14 12 15 16 18 17 19 31 18 36 34 36 36 39 37 28 25 25 23 21
14 11 18 23 26 27 26 25 24 22 19 16 12 15 16 15 16 16 15 18 25 35 36 36 38 36 34 29 28 26 24 25
16 13 18 22 27 29 27 27 25 23 19 16 13 14 10 11 15 13 17 18 21 29 37 38 37 36 35 30 28 29 26 27
17 13 16 23 25 25 26 26 26 24 22 18 17 15 10 11 12 14 12 12 23 28 39 37 37 33 32 31 30 29 26 26
17 14 16 21 25 27 27 26 25 24 22 18 17 13 13 12 12 13 13 13 20 27 36 35 36 33 29 30 29 29 27 26
12 11 15 21 25 26 27 27 25 24 22 20 19 16 16 15 13 12 14 17 19 21 27 28 32 31 28 30 30 31 28 25
8 12 14 21 26 26 27 29 25 25 23 21 21 17 16 13 15 13 15 16 20 23 23 25 30 30 26 26 29 30 29 27
6 9 13 18 22 23 25 27 25 24 22 20 20 18 15 13 13 13 12 14 15 19 25 30 30 33 32 29 27 29 28 28
4 8 10 17 21 22 23 25 24 24 22 20 19 18 16 14 13 12 11 12 13 18 24 30 32 33 33 31 30 31 32 33
5 6 9 15 19 20 21 23 22 22 20 19 18 17 15 13 12 13 12 11 12 15 19 25 28 31 30 33 34 32 31 34
8 6 7 15 16 16 19 21 22 21 19 19 16 15 15 13 12 11 10 9 11 14 15 18 22 26 29 29 31 31 31 24
14 10 11 14 14 15 16 17 19 19 17 15 15 14 13 13 13 12 11 11 11 13 14 16 18 25 28 28 27 26 30 32
13 15 14 17 15 12 12 13 15 15 14 16 14 12 11 10 10 10 11 12 11 12 12 13 14 16 22 26 25 22 24 27
13 14 13 17 19 19 18 22 18 10 12 15 13 9 9 9 9 9 9 9 10 12 12 12 11 12 15 20 20 21 21 23
13 14 13 16 18 20 21 23 21 17 16 17 15 14 14 12 8 5 7 7 7 8 10 11 12 8 8 14 15 19 22 24
12 13 14 15 18 19 19 20 20 18 18 18 15 15 15 14 12 12 12 11 7 6 5 4 7 5 2 13 17 17 15 21
11 11 13 16 18 18 19 18 17 17 20 19 15 15 18 15 12 12 14 13 12 14 14 12 11 10 10 4 9 18 22 24
12 11 14 19 18 18 18 20 20 21 20 18 14 17 21 14 13 13 14 14 15 15 15 13 12 16 14 8 5 3 2 3

GFSFLT1_925_spd_081.txt.gz
Wind_Speed
21 24 20 19 24 27 26 24 22 20 16 14 12 10 14 15 13 15 15 18 23 24 28 29 29 28 31 31 24 21 22 23
19 23 13 18 24 27 27 25 24 22 19 17 15 13 13 12 12 14 16 17 18 22 26 31 30 31 31 34 26 24 23 27
18 19 17 20 24 27 27 26 26 23 19 16 12 15 13 13 13 13 14 17 19 20 34 33 34 31 34 33 26 24 22 26
18 19 18 21 24 28 28 27 26 23 19 16 13 14 10 12 12 12 13 14 14 17 28 35 33 36 37 36 30 27 20 23
17 18 19 23 25 26 28 27 26 24 21 18 18 18 14 15 13 11 10 11 14 18 20 38 39 38 36 36 32 28 26 24
20 20 18 24 25 26 27 27 26 24 24 19 19 18 16 13 12 11 11 8 10 13 25 32 36 36 38 35 30 29 25 24
19 18 26 24 24 26 28 29 27 25 24 19 18 16 16 13 13 12 13 10 9 12 25 31 34 34 38 38 32 27 25 21
11 11 12 13 25 28 29 29 27 26 23 19 17 16 16 15 15 14 14 15 13 17 20 27 28 31 33 37 34 27 25 23
9 14 12 16 24 27 29 29 27 25 23 20 19 17 16 13 12 13 13 15 15 16 20 22 27 26 32 29 24 23 23 22
19 6 8 15 21 21 19 26 25 24 22 20 19 16 14 13 11 11 11 12 13 16 20 19 22 27 29 30 26 23 22 23
20 5 6 13 20 19 14 16 22 22 20 18 17 17 15 13 12 11 8 9 11 13 18 21 24 27 28 29 30 29 27 27
18 19 6 16 17 16 15 17 20 18 16 16 15 14 13 12 11 10 9 8 8 12 16 20 25 28 32 31 26 30 30 28
15 14 18 8 13 12 12 16 16 16 16 15 13 14 13 12 10 9 9 7 6 9 10 15 21 24 26 29 30 29 30 27
14 14 13 15 18 13 11 11 17 18 15 12 10 12 15 13 11 10 9 8 7 7 8 9 13 14 18 24 26 25 25 28
13 13 13 16 17 19 20 24 18 18 16 16 12 8 8 7 5 10 10 8 8 8 9 8 8 8 10 14 20 23 24 24
13 13 12 16 18 19 21 23 23 19 23 20 15 14 15 13 10 6 6 11 13 9 10 8 8 7 4 6 9 10 24 22
12 13 13 14 18 17 20 21 21 21 23 22 16 18 18 18 17 16 13 12 12 13 15 14 12 10 4 4 7 4 3 2
12 11 12 15 17 18 19 19 18 21 22 19 17 20 21 20 21 19 19 19 17 17 15 13 15 13 10 6 4 2 2 3
9 10 14 13 15 15 17 21 23 20 21 19 15 19 22 19 20 26 22 20 22 22 20 17 15 19 12 9 10 7 9 11

GFSFLT1_925_spd_084.txt.gz
Wind_Speed
17 28 32 32 28 31 35 32 28 25 20 18 16 16 15 16 17 19 21 18 18 22 22 23 24 25 26 25 25 28 26 23
23 23 31 28 21 32 34 31 28 27 22 22 20 20 17 17 19 16 18 17 19 22 25 22 26 24 27 28 25 28 26 21
13 11 19 19 22 30 31 29 29 28 22 22 20 19 20 19 17 17 17 19 20 23 26 28 28 26 27 31 28 20 22 24
14 12 12 22 19 29 30 30 29 28 22 21 17 16 14 15 16 17 16 17 19 19 24 31 28 29 29 33 33 26 20 24
15 14 13 20 21 27 29 30 28 26 24 22 21 20 15 14 14 17 15 15 16 19 23 30 33 31 31 35 37 33 22 21
10 12 12 27 26 27 28 31 28 26 24 22 20 18 17 15 17 16 15 15 13 18 23 26 31 34 33 34 35 30 27 24
11 13 19 23 29 29 29 31 28 27 25 25 24 22 19 17 18 18 15 14 13 16 20 25 28 33 35 36 34 35 32 25
19 15 15 15 29 30 29 29 27 28 27 24 23 19 17 18 21 18 17 15 11 10 12 23 29 29 33 39 33 34 34 25
19 24 23 7 26 28 28 26 25 27 27 22 20 19 19 16 19 18 19 17 14 11 14 22 25 28 31 36 40 32 34 28
20 23 25 3 24 27 27 25 25 23 23 20 19 18 19 16 16 18 15 14 14 15 15 19 24 22 32 33 32 33 31 31
17 19 22 22 18 17 15 11 27 18 22 20 20 17 16 14 13 12 15 14 15 15 17 18 18 22 20 26 30 28 27 23
14 15 23 29 17 14 14 15 16 18 12 22 17 16 16 15 14 13 11 11 14 16 15 18 20 21 22 22 22 25 27 26
13 14 19 23 25 20 9 12 10 12 10 19 17 15 15 15 13 12 12 14 12 12 14 16 17 19 22 25 27 28 28 28
14 15 15 18 22 21 23 12 15 16 10 15 14 14 13 12 13 13 13 12 11 11 10 14 17 18 19 22 27 28 28 27
12 13 14 20 22 22 23 22 17 14 17 18 18 15 14 15 11 11 12 12 11 10 10 11 15 15 15 15 19 22 23 24
13 12 12 18 23 24 24 22 23 17 22 21 17 15 16 17 19 21 19 17 16 15 16 16 14 12 9 9 10 7 20 21
13 13 14 16 21 21 22 22 23 21 23 23 19 17 16 18 18 20 22 22 20 21 20 18 15 12 7 7 10 8 10 11
11 11 13 17 19 20 21 22 20 24 24 22 22 23 22 21 21 22 23 24 22 23 21 19 19 16 12 11 9 9 9 9
9 6 12 17 17 20 19 22 24 24 23 23 22 24 23 21 25 27 26 28 29 25 23 22 22 23 16 13 13 15 17 17

GFSFLT1_925_spd_087.txt.gz
Wind_Speed
22 27 35 36 39 28 43 45 42 37 28 25 23 21 19 23 22 21 20 19 22 25 27 28 30 26 26 27 30 29 27 26
15 16 32 36 36 33 39 37 38 36 34 33 28 27 23 22 21 22 20 21 23 25 28 29 29 28 28 28 27 25 24 34
12 12 18 31 27 33 36 39 43 39 37 33 25 28 22 21 20 18 18 21 21 25 27 28 26 25 25 28 26 20 20 28
17 8 13 21 23 37 37 40 40 35 34 29 18 23 19 21 21 19 21 22 22 24 25 25 26 25 25 27 28 26 20 27
9 8 7 15 29 38 39 40 39 33 32 30 30 24 19 20 26 22 22 23 24 23 26 25 28 28 28 31 32 31 25 28
5 7 9 22 31 34 36 39 37 35 32 30 31 25 22 24 21 20 20 21 22 24 24 27 30 31 32 33 35 33 30 27
15 15 21 17 28 36 38 40 36 39 33 33 32 28 24 24 23 23 24 22 20 20 23 28 28 32 32 34 39 37 32 29
17 18 16 19 20 28 34 34 32 36 35 34 31 28 27 27 26 27 25 21 19 19 23 24 30 32 34 35 35 35 34 33
15 16 17 20 22 25 34 30 29 34 33 33 28 27 28 26 27 27 23 20 20 19 21 22 26 29 27 34 32 33 34 31
17 19 20 29 12 23 32 32 30 31 34 28 27 28 28 24 22 23 21 22 19 16 15 17 23 24 28 31 30 32 35 33
17 17 19 28 30 20 8 26 33 34 32 29 28 26 21 20 23 21 18 19 18 17 16 17 21 21 24 26 33 29 32 33
14 14 21 24 27 32 29 14 20 28 30 29 28 26 20 21 19 19 19 16 17 17 17 18 20 17 23 28 27 34 28 28
13 13 19 25 26 26 24 24 17 22 23 27 26 24 20 20 20 19 18 17 16 15 15 17 17 17 17 18 25 30 29 29
13 14 15 20 23 26 27 28 16 16 24 23 21 18 19 19 18 16 18 18 14 13 13 13 15 17 17 19 19 27 30 30
12 13 13 20 24 26 26 28 25 17 23 24 21 17 15 15 17 19 17 17 17 14 13 16 16 15 15 16 17 20 23 25
13 12 11 17 22 24 26 26 28 18 21 27 22 20 18 20 20 20 20 20 20 19 19 17 16 15 14 14 15 18 16 14
12 13 12 15 18 20 21 26 27 24 23 23 19 22 21 21 20 21 22 21 21 20 19 17 15 12 13 17 16 17 21 20
12 12 11 14 15 17 22 22 26 27 25 23 21 21 23 22 21 21 23 23 23 22 22 20 20 17 13 17 18 21 22 20
9 9 14 16 15 17 24 25 26 28 28 25 23 23 23 24 26 25 24 24 25 26 24 25 26 22 18 20 22 23 23 19

GFSFLT1_925_spd_090.txt.gz
Wind_Speed
19 24 28 35 39 34 38 43 44 37 38 37 34 30 26 27 29 29 28 25 26 28 27 26 27 29 28 28 30 32 28 27
19 25 26 30 35 29 34 37 36 39 38 35 32 33 30 28 27 27 27 26 26 29 27 27 28 30 31 29 30 29 25 27
19 18 23 24 26 30 37 42 45 44 41 34 29 34 31 28 27 25 26 27 27 29 29 29 30 29 25 27 29 20 19 28
21 17 15 26 19 31 37 42 46 38 37 33 25 29 23 22 26 26 26 25 27 27 27 30 30 27 25 29 31 28 21 21
12 9 10 16 18 33 40 42 41 39 42 33 37 32 24 19 21 27 24 23 25 24 24 26 28 28 26 28 31 30 25 22
18 16 15 19 8 29 36 39 38 38 40 39 35 25 22 24 24 26 25 24 22 22 22 25 26 26 26 25 25 30 30 27
18 19 21 23 16 15 26 34 33 35 37 38 36 32 29 27 27 27 26 25 24 22 24 27 26 27 30 28 29 30 31 28
18 19 18 20 20 11 21 27 29 37 38 36 35 34 33 30 31 28 21 21 23 23 25 25 26 28 29 30 32 32 34 35
16 16 15 20 24 9 23 20 17 30 34 31 35 33 31 29 30 27 23 26 24 24 23 23 26 27 29 32 33 33 32 34
16 17 18 23 25 23 11 29 32 29 31 36 35 32 30 28 26 25 26 25 24 22 22 24 25 26 29 32 31 32 34 36
16 16 18 24 24 24 19 4 18 26 31 35 33 31 30 28 27 27 25 21 22 19 20 20 20 22 24 27 27 29 33 31
14 15 21 23 25 26 18 26 14 11 18 28 29 28 28 29 26 26 21 19 20 19 20 18 16 18 21 21 22 28 32 28
13 14 19 22 25 28 29 28 21 9 11 26 28 28 27 27 24 19 17 19 19 19 18 17 17 17 15 20 24 25 32 27
14 15 16 20 25 26 25 22 19 8 9 24 27 24 22 20 18 16 18 16 15 14 12 14 15 15 15 15 21 26 25 29
13 13 14 19 22 24 26 25 26 18 10 22 28 25 21 19 18 16 14 14 15 14 14 13 13 13 13 13 19 22 26 23
15 14 12 17 20 21 24 25 28 25 18 14 23 26 25 23 22 19 17 17 13 11 11 11 11 12 12 12 15 19 21 19
14 14 15 17 21 20 21 25 28 26 24 23 19 22 23 24 25 23 22 17 14 13 12 10 10 8 13 14 17 17 18 20
13 13 14 18 22 22 21 21 25 30 26 25 24 23 21 19 22 24 24 20 17 16 15 15 16 14 13 18 20 22 23 22
9 10 15 18 23 27 22 21 24 24 26 26 27 27 25 23 24 24 24 23 22 21 20 18 18 17 17 21 25 25 24 21

GFSFLT1_925_spd_096.txt.gz
Wind_Speed
19 22 27 29 29 28 32 34 38 41 39 34 34 37 38 37 36 37 33 31 30 26 24 24 25 26 26 26 23 25 24 22
15 21 23 29 27 23 28 33 36 35 32 29 28 31 34 34 38 39 35 32 31 29 26 24 26 27 27 28 22 24 19 22
14 22 19 20 27 25 21 30 35 37 34 35 27 33 31 32 28 30 38 36 32 32 29 27 27 26 27 27 25 17 17 26
15 16 23 22 24 24 24 23 29 37 36 33 26 23 17 20 24 32 32 38 35 33 30 29 28 27 28 29 29 25 17 25
12 14 20 24 25 26 27 25 25 34 34 33 34 32 23 26 30 25 18 30 34 31 31 29 28 29 27 29 29 29 22 18
15 15 22 28 25 27 26 28 24 29 34 37 36 30 26 26 31 28 33 34 27 32 33 31 29 28 27 29 29 30 31 21
14 20 24 26 26 27 28 27 25 29 33 34 35 31 28 28 28 27 31 34 34 35 33 32 28 28 28 28 27 28 28 27
13 17 18 26 29 31 30 28 26 24 28 28 29 29 30 31 36 35 32 30 33 35 33 30 26 26 25 26 27 27 28 28
13 16 18 25 30 31 32 31 32 20 24 24 22 26 25 25 24 26 29 31 28 29 30 28 24 23 23 23 26 26 27 29
15 17 23 27 30 31 30 31 31 16 21 22 24 27 27 25 22 21 21 25 25 24 26 24 24 26 24 26 22 23 26 28
16 16 21 26 30 32 31 30 28 7 15 20 21 22 23 23 17 24 26 23 21 21 24 24 27 24 24 21 21 24 25 28
14 15 22 24 26 30 31 33 31 23 12 17 20 22 22 18 19 23 24 22 21 23 24 26 23 21 20 19 21 22 24 25
14 15 21 25 27 31 31 32 30 29 14 12 18 18 15 16 28 27 24 21 21 23 22 20 18 18 17 17 20 20 24 25
15 15 16 23 28 31 31 31 31 29 23 11 4 4 10 19 28 25 22 21 19 17 16 14 14 12 10 13 15 15 19 24
14 15 16 23 26 27 29 31 31 29 25 23 19 11 13 21 25 25 23 20 18 16 14 13 12 11 8 9 11 12 15 17
14 14 15 21 26 27 28 28 29 25 27 30 25 19 14 9 25 28 24 23 21 18 16 12 8 5 4 7 7 10 12 10
14 14 15 19 24 26 27 29 29 27 27 25 25 24 20 19 17 27 26 21 19 17 13 11 8 5 1 5 6 8 11 13
13 14 14 20 23 24 24 25 28 28 28 26 21 29 27 28 24 20 25 22 20 19 16 13 12 9 4 3 9 11 13 13
11 13 17 21 23 24 23 27 28 28 29 31 31 30 29 28 23 28 25 24 24 21 18 16 16 15 10 9 13 14 15 13

GFSFLT1_925_spd_099.txt.gz
Wind_Speed
18 17 17 17 19 20 22 22 24 25 27 27 28 29 33 35 37 32 33 36 34 33 30 28 26 24 25 23 24 24 21 22
16 21 20 18 17 23 22 24 24 18 24 26 29 31 33 33 35 34 33 36 36 35 32 29 28 27 27 25 24 22 20 23
16 22 25 26 25 20 26 25 24 20 25 29 31 32 31 30 26 31 36 36 37 36 33 31 30 28 26 27 26 19 17 26
15 18 22 23 26 26 25 30 28 25 21 26 26 24 23 23 31 36 38 38 38 35 30 32 32 30 29 30 30 24 18 24
13 14 20 24 26 26 26 28 28 26 23 27 31 29 26 30 32 31 31 32 34 27 21 28 31 30 29 29 30 30 23 21
16 17 23 24 24 28 29 30 28 25 26 30 34 31 31 24 26 31 31 34 38 41 21 35 34 32 31 27 30 29 31 22
17 22 26 27 28 29 30 30 30 26 25 30 35 34 30 25 28 29 30 36 38 36 46 45 35 33 29 27 28 32 31 26
17 19 20 27 28 30 30 30 31 27 25 25 32 32 32 31 31 30 28 28 33 47 45 38 38 33 29 23 30 28 32 28
17 18 23 24 28 30 32 32 32 31 25 22 25 27 25 25 27 26 27 25 26 28 36 37 37 31 29 29 29 26 27 29
17 19 24 24 28 31 30 32 32 30 28 18 22 24 24 24 22 23 22 17 20 29 32 34 34 30 31 26 26 26 27 28
14 15 23 27 28 30 31 31 30 31 30 14 18 20 23 23 20 19 23 18 16 19 24 29 30 27 23 25 25 24 24 24
13 14 23 25 29 28 29 32 33 35 31 5 12 17 22 22 21 21 24 23 13 19 25 26 25 26 23 24 25 24 23 22
13 15 25 26 29 32 33 33 34 31 28 25 2 8 13 15 20 21 28 22 17 24 20 22 23 25 22 22 22 21 21 21
13 17 18 22 26 27 29 31 32 33 30 27 21 13 1 12 21 23 25 26 24 21 23 22 21 19 18 19 20 18 18 20
14 16 15 22 24 26 26 28 31 32 29 26 25 22 14 5 12 20 26 28 27 21 19 17 14 14 14 14 15 16 15 17
14 16 14 21 24 27 29 30 33 31 27 27 25 20 17 15 11 10 14 27 28 24 21 18 16 13 13 13 13 12 12 14
14 14 16 20 24 26 27 28 29 29 29 30 26 26 24 21 22 16 16 25 27 25 22 18 13 7 8 11 10 9 10 8
13 13 16 20 22 23 25 26 28 29 30 30 29 24 24 26 25 30 23 18 28 24 21 16 14 8 2 4 10 10 9 8
11 14 18 21 21 24 23 26 27 27 28 29 31 28 27 26 32 28 26 25 22 27 24 19 18 15 10 7 13 14 15 13

GFSFLT1_925_spd_102.txt.gz
Wind_Speed
6 9 11 13 15 16 19 21 19 18 18 22 26 28 28 29 29 29 27 32 35 30 25 24 25 26 19 19 18 19 18 16
9 12 13 15 16 18 19 21 21 20 19 20 25 28 30 32 33 33 29 27 35 32 28 26 28 27 23 22 17 20 18 17
11 16 18 18 18 19 20 21 23 22 21 21 25 27 29 31 30 30 27 31 34 34 31 30 29 25 25 23 20 17 15 23
10 13 17 20 23 23 23 23 23 24 23 23 24 28 27 24 28 29 34 32 33 33 32 31 27 25 25 22 22 21 15 22
10 11 15 19 20 23 24 23 24 24 23 23 24 28 28 32 31 33 32 34 36 36 37 37 32 28 25 24 24 22 20 20
11 13 16 18 20 24 25 23 25 26 24 23 26 29 32 30 26 28 29 35 40 38 38 37 40 36 31 26 24 26 25 22
12 15 17 18 21 22 24 24 27 26 25 25 27 32 35 30 27 26 27 31 36 39 37 34 33 30 31 33 31 27 26 24
13 16 18 22 24 26 26 25 30 29 28 27 26 32 37 31 30 24 22 27 28 35 37 36 39 37 33 34 29 29 28 28
15 16 19 22 25 27 28 29 33 35 32 31 28 27 31 29 26 21 24 25 29 27 36 41 32 39 29 29 29 28 27 29
15 17 21 24 25 28 29 29 32 33 33 34 29 22 25 21 22 23 25 26 26 25 26 25 24 22 29 32 30 26 24 29
14 16 21 23 24 26 28 27 29 33 35 33 31 12 16 19 25 24 27 26 22 22 22 21 24 30 31 31 24 24 26 27
13 14 21 23 24 26 28 32 34 36 36 35 32 9 13 17 21 21 27 25 25 28 25 23 25 23 25 23 23 23 23 25
12 14 21 24 25 28 29 30 32 34 33 30 27 19 11 14 20 25 28 27 27 29 35 28 18 22 20 20 21 20 24 25
12 13 16 20 24 27 30 32 31 37 33 30 26 25 20 15 4 15 22 21 24 23 23 27 27 21 20 22 24 25 25 24
12 12 14 20 23 26 29 31 32 35 26 25 26 27 24 20 12 3 12 16 16 18 19 23 25 23 21 23 23 21 21 18
11 12 13 19 23 25 28 30 31 29 29 33 32 27 30 20 16 12 7 11 15 19 24 26 26 24 19 18 19 18 16 15
12 13 15 18 22 24 25 28 30 29 30 28 26 32 26 24 22 18 19 12 12 19 24 22 20 15 14 18 16 13 14 13
11 12 14 17 22 22 23 24 25 28 28 30 32 30 27 29 26 25 26 27 24 18 19 23 19 12 8 10 14 12 11 9
11 13 15 18 20 21 21 22 24 25 28 31 33 33 32 31 26 26 28 29 32 31 28 23 22 17 12 11 13 12 12 10

GFSFLT1_925_spd_105.txt.gz
Wind_Speed
5 2 6 8 10 13 15 14 13 14 15 17 18 24 26 29 29 29 28 30 33 33 29 28 26 27 23 24 23 20 18 18
3 4 6 9 11 14 16 18 17 17 17 18 20 22 26 28 31 31 29 29 31 32 30 29 30 30 27 26 24 20 19 15
4 5 8 11 12 13 15 17 19 19 19 20 22 23 27 25 29 29 31 30 28 33 32 30 31 29 27 27 24 18 15 21
4 8 10 12 13 15 16 17 19 20 20 22 23 25 28 31 26 27 28 34 35 37 33 34 33 31 31 30 26 24 19 21
7 9 13 15 15 16 17 18 20 19 19 21 21 25 27 25 31 26 28 33 33 35 38 39 32 31 30 32 28 25 22 20
7 10 13 14 16 19 20 21 21 21 21 20 21 24 28 30 33 29 28 31 32 35 38 37 33 30 30 27 22 26 26 22
8 11 13 15 17 19 21 22 24 22 22 22 23 25 27 31 30 31 28 26 31 33 33 34 35 35 35 37 21 33 31 28
9 11 13 17 19 21 23 23 25 25 24 24 24 26 28 32 36 33 27 24 26 31 35 36 38 40 42 39 27 41 35 29
10 12 16 19 22 24 24 26 26 27 27 28 28 27 26 31 38 34 27 25 25 27 36 36 37 33 26 26 28 33 29 28
11 12 16 19 22 23 25 27 27 28 30 29 30 29 26 31 37 30 28 24 23 28 30 33 29 28 27 26 27 31 31 30
12 13 18 20 21 23 25 25 28 29 30 28 30 33 33 24 26 26 25 23 25 27 30 34 30 26 26 26 28 28 31 27
11 12 18 19 22 23 25 27 28 31 32 31 33 37 36 26 13 19 23 24 26 25 26 26 30 33 32 25 21 25 25 20
11 13 17 20 23 25 25 29 29 29 29 30 32 35 35 29 19 16 16 21 24 24 23 25 27 29 26 28 19 14 25 20
12 13 14 19 22 24 26 29 32 31 31 32 30 34 33 31 26 17 13 18 18 21 22 24 27 28 30 30 26 47 39 26
11 12 13 19 21 24 26 27 31 32 32 33 34 32 31 29 26 23 17 4 18 23 23 20 20 23 26 30 28 27 22 19
12 13 13 19 21 24 26 26 28 30 30 33 33 29 27 26 29 26 22 19 11 6 13 16 18 20 20 21 23 22 20 19
11 13 15 18 21 23 23 24 25 27 29 32 32 32 32 36 31 27 28 25 24 19 13 9 13 10 17 20 19 16 14 14
12 12 14 18 20 20 22 22 23 26 28 30 31 32 33 35 32 32 34 29 28 32 29 17 13 10 8 17 18 16 12 9
12 13 16 19 18 20 20 21 24 26 28 29 30 30 30 30 30 30 29 31 33 32 34 31 24 21 13 17 18 17 15 11

GFSFLT1_925_spd_108.txt.gz
Wind_Speed
18 9 11 7 8 8 10 12 13 13 14 15 17 20 22 23 25 26 29 32 33 33 33 31 35 33 29 28 25 24 21 22
17 14 12 8 9 11 14 15 16 18 16 16 17 18 19 22 26 30 27 31 33 34 34 34 31 30 31 29 28 27 22 19
12 12 11 7 8 13 14 15 17 18 18 21 21 23 26 29 29 26 29 38 34 34 35 34 33 32 33 31 32 24 20 27
11 9 10 9 11 12 14 17 18 19 19 20 20 22 24 25 30 36 37 37 39 34 36 36 36 30 17 30 29 29 22 24
10 8 8 9 15 15 15 18 20 19 22 21 22 22 22 27 33 31 31 33 39 39 42 39 36 36 36 29 28 26 24 21
10 8 10 15 16 16 18 19 21 23 23 22 22 23 24 27 30 35 35 37 41 40 41 39 40 36 35 34 28 27 27 23
9 12 15 17 17 17 19 20 22 23 22 23 24 27 28 28 28 32 35 36 33 40 41 37 37 35 34 38 39 34 38 31
9 11 13 16 18 19 20 21 23 24 23 25 27 27 28 30 30 31 35 38 30 30 36 37 37 34 40 38 37 39 34 34
11 11 14 16 18 20 22 24 25 26 25 28 29 28 26 28 30 31 35 39 30 24 43 36 36 37 36 40 40 34 37 30
9 11 15 17 19 20 21 23 25 25 27 29 31 28 27 28 31 33 41 41 37 26 30 30 30 36 36 35 26 28 31 32
11 10 15 17 19 20 20 21 25 26 28 28 28 29 28 28 25 28 25 33 34 26 25 27 32 35 35 36 30 28 30 27
11 10 17 19 20 21 21 24 26 28 29 29 29 31 31 29 29 32 33 24 26 28 29 32 31 33 33 33 32 30 30 28
12 13 19 20 20 21 23 25 27 30 30 30 29 31 31 30 31 32 33 29 16 27 30 27 33 33 32 32 29 30 30 29
13 13 16 18 21 22 23 25 27 31 31 30 30 31 32 33 33 34 32 30 21 16 26 26 24 30 30 32 31 33 34 26
12 13 15 19 21 21 23 25 27 28 31 30 30 31 32 32 32 32 30 30 26 20 14 18 18 24 29 29 29 28 28 26
12 13 12 19 19 21 23 24 26 28 28 29 29 31 32 34 33 34 32 32 29 24 21 13 7 9 11 22 21 28 30 28
12 12 15 17 20 22 22 23 25 26 27 28 29 32 34 36 33 35 36 34 35 30 29 27 21 18 6 17 21 20 18 18
10 11 15 18 19 20 21 22 23 26 25 27 30 31 34 33 35 36 35 34 34 37 37 34 37 29 20 11 19 21 19 17
10 13 16 19 19 19 19 21 23 24 25 27 31 33 31 33 34 34 34 34 35 35 36 35 33 38 28 21 16 24 22 17

GFSFLT1_925_spd_111.txt.gz
Wind_Speed
22 31 30 28 25 21 20 19 18 17 15 15 14 14 14 14 16 20 22 28 30 35 38 42 39 35 28 37 40 40 36 34
26 29 29 26 22 20 19 18 19 19 20 21 22 24 25 25 25 23 21 17 29 36 42 43 41 43 36 37 36 34 30 31
17 24 28 28 24 19 18 17 18 19 20 19 17 18 16 23 27 30 32 32 29 29 40 37 36 40 36 35 38 23 19 31
19 16 24 28 26 23 20 18 18 19 21 24 25 24 21 19 22 28 30 28 28 28 33 39 36 39 38 34 25 21 15 18
18 16 21 23 27 23 20 19 19 18 21 22 22 18 20 23 26 29 35 38 38 34 29 39 42 39 39 39 40 24 31 31
18 17 22 27 26 23 20 21 20 22 22 21 21 20 21 24 26 29 33 34 36 32 33 31 42 40 40 43 38 31 39 34
17 24 24 28 23 19 19 22 22 23 25 23 22 23 25 25 27 29 30 30 34 34 31 31 34 42 40 40 40 39 37 33
15 16 15 25 21 19 17 22 24 26 26 25 24 23 24 24 27 28 32 31 31 32 29 36 30 37 37 37 37 40 41 40
15 13 18 20 19 20 21 21 24 24 25 26 26 24 25 25 26 30 33 32 34 36 35 34 35 30 34 36 39 42 43 37
13 17 21 21 19 21 23 23 23 26 25 25 26 27 27 28 30 31 31 31 33 37 37 35 34 38 32 36 39 43 43 45
12 15 20 20 21 21 23 24 23 26 26 26 26 28 29 29 29 29 31 31 32 29 26 32 34 40 38 39 40 36 36 31
13 14 17 19 21 21 21 24 25 27 28 27 28 30 30 30 28 28 30 31 30 27 23 30 33 37 33 38 35 32 32 33
10 14 17 17 20 22 23 25 25 26 27 28 28 29 29 28 28 29 30 31 30 28 23 21 27 30 31 36 29 29 31 32
10 13 17 20 20 21 21 22 24 26 27 28 29 29 30 29 30 31 30 33 33 33 25 21 15 14 29 32 31 31 29 32
13 12 16 19 20 20 21 23 25 27 28 29 29 30 30 29 29 31 32 34 35 36 32 26 22 16 0 7 26 26 26 26
14 13 13 16 18 20 22 24 26 27 26 27 28 29 28 29 31 32 33 35 35 32 30 31 28 32 24 10 13 18 25 22
10 11 17 17 20 21 22 24 25 24 24 26 28 27 28 30 31 34 36 37 34 34 34 34 36 30 32 14 8 23 18 18
11 12 17 19 19 20 21 23 23 25 25 26 26 25 28 30 31 33 34 36 34 36 37 36 38 40 36 25 29 22 21 20
10 13 15 19 22 21 23 24 22 23 24 24 25 28 30 31 33 34 33 31 33 38 40 39 39 44 39 33 26 40 31 28

GFSFLT1_925_spd_114.txt.gz
Wind_Speed
20 24 29 31 28 25 23 21 20 17 15 17 16 15 15 18 19 18 17 15 16 18 30 36 36 38 37 37 33 36 35 36
18 23 28 32 31 30 27 24 24 23 24 25 27 26 27 22 22 23 23 22 19 18 20 26 34 37 40 42 37 28 29 34
13 22 27 30 31 29 27 25 22 21 21 19 14 23 19 24 22 24 23 23 24 24 21 19 25 32 35 32 35 32 31 31
13 16 23 26 30 28 26 24 21 20 20 21 22 19 20 20 28 28 26 27 27 27 29 27 24 23 32 32 35 37 30 16
14 14 22 24 27 29 26 22 23 21 21 22 23 17 16 19 23 25 30 29 29 28 27 29 28 30 27 32 34 34 31 21
12 17 25 25 27 27 22 22 28 22 21 20 19 20 21 24 22 21 23 24 26 28 28 27 28 31 33 30 31 32 34 29
17 23 23 22 22 22 20 23 32 25 21 20 16 18 22 24 23 24 22 23 24 24 25 27 27 27 32 30 36 35 38 38
16 16 18 21 22 26 21 27 24 25 23 21 18 17 20 21 23 23 28 25 26 30 30 30 30 31 30 27 35 37 35 32
15 16 18 19 23 26 23 20 20 25 24 22 19 20 21 22 23 24 26 25 27 31 31 30 35 36 34 32 32 35 33 36
15 17 20 23 23 19 20 21 22 24 26 24 23 22 23 24 26 25 25 26 28 31 35 35 36 33 32 32 30 35 36 39
13 14 21 21 17 18 21 20 19 18 21 23 24 24 25 25 25 25 27 30 31 34 35 34 34 32 34 33 31 31 32 37
11 13 15 16 17 19 21 24 23 25 25 25 25 25 24 25 25 27 28 29 31 30 33 33 30 31 29 32 32 29 31 32
13 18 19 19 19 19 21 23 22 23 22 21 22 23 25 26 26 27 30 30 29 29 30 31 27 29 23 27 33 29 28 29
11 14 16 18 18 18 19 21 23 24 22 22 23 26 27 27 29 30 31 31 30 31 30 30 31 30 25 13 19 24 28 31
9 9 12 13 15 17 18 20 23 23 21 23 25 26 27 28 29 32 32 31 31 32 31 30 30 30 29 23 12 13 13 28
10 10 11 14 15 16 18 21 21 20 22 24 26 26 27 29 30 30 31 33 33 33 32 31 34 28 33 28 14 13 23 33
10 11 14 14 17 17 17 18 21 20 22 25 25 25 27 27 31 33 32 32 33 34 36 34 35 34 34 33 13 13 11 18
8 9 14 15 15 18 18 18 20 23 24 26 26 27 28 30 30 30 33 34 35 34 35 35 38 40 38 35 33 31 32 29
6 9 11 14 15 15 15 19 22 27 28 27 28 28 27 28 29 30 33 30 31 32 36 37 38 47 45 36 35 37 37 39

GFSFLT1_925_spd_117.txt.gz
Wind_Speed
13 21 19 16 17 19 20 18 15 11 9 7 6 5 9 9 12 11 12 13 13 14 14 14 16 24 25 32 41 30 21 31
17 21 18 17 18 20 21 21 19 16 13 10 7 17 11 14 13 16 16 16 17 19 19 19 15 15 21 23 29 29 25 34
12 17 23 19 19 19 22 23 22 21 19 16 12 12 9 12 15 17 19 21 21 20 20 21 20 20 17 18 24 22 23 30
11 15 19 20 21 20 21 21 21 23 22 19 15 10 16 18 24 23 23 24 24 22 21 20 21 19 21 21 18 24 20 19
12 13 18 21 18 21 24 24 24 25 23 22 20 16 9 14 23 24 25 24 25 26 24 22 21 20 20 24 24 22 24 17
12 12 16 21 22 18 23 27 29 26 24 22 17 15 13 14 16 22 22 22 24 24 25 23 21 19 19 20 24 26 27 26
14 18 16 19 22 18 25 23 28 26 27 23 21 19 19 19 18 19 20 22 24 24 25 25 26 26 24 22 23 27 28 32
14 15 20 19 18 23 19 21 21 23 26 24 23 20 17 17 17 19 22 22 21 23 26 28 28 27 27 28 28 28 27 32
11 15 17 18 16 15 18 19 19 23 25 22 20 17 17 16 18 20 20 21 23 24 25 26 28 27 28 29 29 27 29 30
8 10 15 17 19 22 24 23 21 25 22 21 20 20 21 21 20 18 20 21 23 25 26 25 27 27 26 29 28 28 27 30
9 12 16 17 20 20 25 24 24 23 22 22 20 19 19 21 20 21 23 23 25 25 27 28 27 27 26 28 29 29 28 28
8 10 11 14 15 17 19 20 19 20 20 20 19 22 22 21 22 23 24 26 26 26 27 26 26 28 28 30 30 26 27 28
6 9 9 11 13 19 20 21 21 20 20 21 23 24 22 23 25 26 28 27 28 27 27 26 28 28 30 30 31 26 25 26
7 8 8 8 13 16 18 19 19 18 20 22 23 23 24 25 25 26 27 29 29 30 30 30 31 30 32 34 33 31 24 25
8 8 13 17 20 19 19 18 17 19 21 22 23 24 23 26 26 27 28 29 29 30 31 32 34 30 35 37 35 27 25 21
8 8 11 12 11 12 14 16 18 19 22 22 23 23 24 25 25 26 28 29 30 31 33 33 36 35 39 41 33 28 26 19
7 6 7 9 12 12 14 18 21 21 20 21 21 23 24 25 25 29 27 31 32 34 36 35 37 40 47 44 39 32 30 27
5 4 6 8 10 12 14 17 18 21 22 22 25 27 27 29 29 30 32 32 31 34 37 36 36 44 51 46 40 34 32 32
4 4 6 9 8 11 14 17 20 20 21 21 24 26 28 29 30 30 31 30 30 29 34 37 37 43 50 49 41 37 34 33

GFSFLT1_925_spd_123.txt.gz
Wind_Speed
20 22 22 23 23 23 23 23 22 16 10 6 6 8 7 5 5 4 2 3 4 6 7 9 10 11 13 17 19 20 30 26
20 23 24 24 26 26 26 26 26 22 19 13 8 10 10 11 11 11 8 7 5 5 6 7 9 10 12 13 15 16 20 22
20 23 24 24 24 25 26 24 23 23 17 16 10 11 8 10 14 13 14 13 10 7 6 7 7 7 10 11 11 10 12 19
13 18 22 22 23 22 22 22 21 21 18 15 16 11 15 15 17 16 17 15 14 10 9 8 9 8 8 11 11 12 13 11
10 12 15 18 18 18 20 19 20 20 19 19 19 15 18 20 18 17 16 15 15 13 13 11 11 11 10 10 11 11 11 15
5 7 7 9 13 15 18 17 18 19 19 20 17 21 17 18 17 16 15 13 14 15 14 14 14 14 13 12 12 14 15 14
8 10 12 15 17 18 15 16 17 22 24 24 24 17 15 17 21 19 20 19 17 16 18 15 15 15 16 16 15 15 17 19
7 12 15 16 19 21 19 18 17 18 19 18 19 16 15 13 17 21 21 19 19 18 20 18 18 18 18 17 17 17 17 20
5 7 9 12 14 16 17 18 19 19 17 16 16 14 15 14 17 18 17 17 17 19 19 18 18 18 20 18 18 18 18 21
6 8 10 12 14 16 16 16 16 18 18 16 16 17 18 19 17 16 16 16 17 19 19 20 19 18 18 18 19 19 19 21
4 7 9 10 12 12 15 16 15 15 14 14 14 14 15 17 16 17 17 19 20 20 21 22 21 20 19 18 18 19 18 20
3 6 9 9 11 13 14 15 15 15 15 15 15 16 19 16 18 18 20 20 21 22 23 23 24 23 23 21 19 18 19 19
4 6 8 9 11 12 13 13 14 14 13 13 14 14 15 17 18 20 21 22 21 23 25 26 29 28 27 22 19 18 19 20
4 5 6 8 9 10 12 12 12 12 13 13 14 16 17 18 18 18 19 20 21 23 26 30 29 31 29 24 20 21 19 20
4 4 7 8 9 11 11 12 12 12 13 14 15 17 17 18 17 18 20 20 21 24 27 29 30 33 31 28 24 24 24 23
5 5 6 7 9 10 11 11 12 12 13 14 15 15 15 17 18 19 19 20 23 25 26 30 31 35 35 31 24 25 26 26
7 6 6 7 8 9 11 11 12 12 15 16 17 17 18 20 19 20 21 21 23 25 27 27 32 34 36 30 26 24 27 29
8 7 6 7 8 8 11 11 11 14 16 17 18 18 20 21 20 21 22 23 20 23 25 27 30 36 37 32 27 26 27 29
9 9 7 6 6 7 6 11 12 14 15 16 18 17 17 18 20 22 21 20 22 23 25 26 27 33 37 35 28 27 28 31

GFSFLT1_925_spd_126.txt.gz
Wind_Speed
14 15 15 15 16 17 18 18 20 18 15 10 9 10 10 11 10 11 11 11 12 11 10 10 11 13 14 16 22 23 21 22
12 13 13 13 15 16 18 19 21 20 18 15 8 11 9 9 11 12 12 12 12 11 11 11 11 12 15 15 15 17 21 21
10 12 13 14 14 15 17 19 19 19 15 13 10 8 5 7 9 11 14 14 13 12 12 12 12 11 14 15 14 17 19 18
8 12 14 16 18 18 17 17 17 17 16 15 12 7 6 8 10 11 14 14 13 15 14 14 14 12 12 15 13 13 18 20
6 9 13 16 17 16 16 16 16 16 16 14 13 11 9 11 11 11 12 14 13 15 16 15 14 13 12 14 13 14 13 17
7 10 11 14 15 15 15 15 16 16 15 15 12 10 12 9 12 11 14 14 14 15 17 16 15 13 13 14 15 14 14 16
6 7 8 10 11 13 12 13 14 16 16 16 15 14 10 10 12 11 15 14 15 13 18 16 15 15 14 16 16 14 16 18
3 5 7 10 13 14 13 13 14 15 16 16 17 17 16 16 18 18 16 17 17 17 17 18 17 17 17 16 16 15 14 17
2 5 7 9 11 12 13 14 14 16 15 16 15 17 16 16 15 15 13 14 15 18 18 17 17 17 16 16 16 14 15 16
1 2 4 6 9 9 12 13 14 15 15 14 16 17 16 15 14 12 12 12 14 15 15 16 17 17 17 18 15 16 17 17
2 2 4 5 7 8 10 11 13 13 13 14 14 15 15 15 14 14 14 13 13 14 15 16 19 18 18 18 16 15 17 18
4 1 2 4 6 7 8 10 11 12 12 13 13 14 15 14 13 14 14 12 14 14 17 17 20 21 21 18 19 18 18 19
4 2 2 4 5 6 8 9 10 12 12 12 13 14 14 13 14 14 14 13 14 17 19 20 23 23 22 20 21 21 21 24
5 4 3 3 4 6 7 9 10 10 11 11 12 13 14 14 15 14 14 16 17 19 22 24 25 25 24 21 21 22 23 24
6 5 5 4 5 6 6 8 9 9 10 11 12 13 13 13 13 14 15 15 18 20 21 23 25 26 26 23 22 22 22 24
8 6 6 6 6 6 6 8 9 9 10 10 12 12 12 12 13 14 14 17 18 18 20 23 23 29 32 26 21 22 24 26
10 9 9 8 6 7 7 8 8 9 10 10 11 12 13 13 14 15 15 15 18 18 20 21 27 29 32 26 22 21 23 25
12 11 10 9 8 8 8 8 8 9 10 10 11 11 12 13 13 14 15 16 17 18 21 21 25 31 33 28 23 21 22 24
13 14 12 10 10 8 8 8 9 9 11 12 12 11 12 12 15 16 16 15 17 19 20 22 23 31 32 30 21 19 20 23